DLH579 FACT-EDDF

Flight info

Callsign DLH579
Flight time 11h 13m
Altitude 37000
Route KODES UN186 ATUPI/N0494F360 UM436 IMGAG/N0491F380 UM436 ANVAG UN187 VNA UR526 LIKAD DCT RASOP UG861 ARASI DCT KOKAM UA604 OBUDU/N0487F400 UA604 AS UR978 CSO UA605 CIRTA DCT ERETI DCT OMARD DCT NOSTA DCT NOPMU DCT ABESI DCT LADOL T163 EMPAX EMPAX5B
Aircraft A359/H-SDE2E3GHIJ3J4J5LM1ORWXY/LB1D1

Departure

Time 2026-05-05 18:22
Airport Cape Town International Airport (FACT)

Arrival

Time 2026-05-06 05:35
Airport Frankfurt Main Airport (EDDF)
Time Latitude Longitude Altitude Speed Heading
2026-05-05 17:34 -33.96708 18.59741 160 ft 0 kts 255°
2026-05-05 18:13 -33.96707 18.59747 160 ft 3 kts 255°
2026-05-05 18:13 -33.96700 18.59778 160 ft 4 kts 255°
2026-05-05 18:13 -33.96695 18.59803 160 ft 4 kts 266°
2026-05-05 18:14 -33.96700 18.59830 160 ft 4 kts 320°
2026-05-05 18:14 -33.96722 18.59842 160 ft 4 kts 345°
2026-05-05 18:14 -33.96744 18.59850 160 ft 1 kts 345°
2026-05-05 18:14 -33.96745 18.59850 160 ft 0 kts 345°
2026-05-05 18:19 -33.96682 18.59832 160 ft 17 kts 346°
2026-05-05 18:19 -33.96563 18.59794 160 ft 18 kts 343°
2026-05-05 18:20 -33.96434 18.59764 160 ft 19 kts 352°
2026-05-05 18:20 -33.96299 18.59737 160 ft 20 kts 350°
2026-05-05 18:20 -33.96175 18.59792 159 ft 21 kts 46°
2026-05-05 18:20 -33.96082 18.59907 160 ft 5 kts 47°
2026-05-05 18:21 -33.96049 18.59977 160 ft 25 kts 85°
2026-05-05 18:21 -33.96264 18.60096 160 ft 51 kts 168°
2026-05-05 18:22 -33.96835 18.60272 163 ft 127 kts 165°
2026-05-05 18:22 -33.97955 18.60625 202 ft 199 kts 165°
2026-05-05 18:22 -33.99335 18.61099 828 ft 207 kts 164°
2026-05-05 18:22 -34.00694 18.61605 1685 ft 205 kts 165°
2026-05-05 18:23 -34.02131 18.62078 2066 ft 228 kts 166°
2026-05-05 18:23 -34.03744 18.62598 2522 ft 245 kts 165°
2026-05-05 18:23 -34.05399 18.63126 3268 ft 249 kts 165°
2026-05-05 18:23 -34.07125 18.63090 3883 ft 257 kts 199°
2026-05-05 18:24 -34.08599 18.61855 4629 ft 261 kts 226°
2026-05-05 18:24 -34.09956 18.60376 5306 ft 264 kts 208°
2026-05-05 18:24 -34.11678 18.59679 6091 ft 263 kts 194°
2026-05-05 18:24 -34.13263 18.58541 6812 ft 270 kts 226°
2026-05-05 18:25 -34.14074 18.56508 7571 ft 278 kts 259°
2026-05-05 18:25 -34.14041 18.54947 8070 ft 284 kts 281°
2026-05-05 18:25 -34.12844 18.52077 8889 ft 293 kts 299°
2026-05-05 18:25 -34.11972 18.49861 9111 ft 294 kts 288°
2026-05-05 18:26 -34.11427 18.47477 9142 ft 293 kts 279°
2026-05-05 18:26 -34.11117 18.45065 9129 ft 293 kts 274°
2026-05-05 18:26 -34.10936 18.42605 9129 ft 293 kts 271°
2026-05-05 18:26 -34.10830 18.40154 9125 ft 293 kts 269°
2026-05-05 18:27 -34.10764 18.37706 9125 ft 293 kts 269°
2026-05-05 18:27 -34.10719 18.35234 9131 ft 293 kts 268°
2026-05-05 18:27 -34.10687 18.32788 9127 ft 293 kts 268°
2026-05-05 18:27 -34.10660 18.30331 9141 ft 293 kts 268°
2026-05-05 18:28 -34.10615 18.25419 9132 ft 292 kts 268°
2026-05-05 18:28 -34.10595 18.22992 9137 ft 292 kts 268°
2026-05-05 18:28 -34.10573 18.20518 9133 ft 292 kts 268°
2026-05-05 18:29 -34.10496 18.18076 9137 ft 294 kts 273°
2026-05-05 18:29 -34.10068 18.15676 9141 ft 297 kts 287°
2026-05-05 18:29 -34.09145 18.13425 9142 ft 299 kts 302°
2026-05-05 18:29 -34.07787 18.11535 9140 ft 300 kts 317°
2026-05-05 18:30 -34.06102 18.10063 9141 ft 301 kts 328°
2026-05-05 18:30 -34.04314 18.08761 9138 ft 301 kts 329°
2026-05-05 18:30 -34.02523 18.07474 9131 ft 301 kts 329°
2026-05-05 18:30 -34.00710 18.06164 9138 ft 301 kts 329°
2026-05-05 18:31 -33.98922 18.04880 9136 ft 301 kts 330°
2026-05-05 18:31 -33.97036 18.03832 9137 ft 301 kts 341°
2026-05-05 18:31 -33.94992 18.03288 9134 ft 300 kts 355°
2026-05-05 18:31 -33.92928 18.03323 9137 ft 298 kts
2026-05-05 18:32 -33.90917 18.03926 9139 ft 295 kts 23°
2026-05-05 18:32 -33.89099 18.05037 9145 ft 293 kts 36°
2026-05-05 18:32 -33.87434 18.06441 9139 ft 292 kts 39°
2026-05-05 18:32 -33.85842 18.07933 9137 ft 292 kts 41°
2026-05-05 18:33 -33.84256 18.09490 9143 ft 292 kts 42°
2026-05-05 18:33 -33.82701 18.11031 9200 ft 291 kts 42°
2026-05-05 18:33 -33.81134 18.12573 9600 ft 294 kts 42°
2026-05-05 18:33 -33.79533 18.14132 10332 ft 299 kts 41°
2026-05-05 18:34 -33.77872 18.15737 10730 ft 318 kts 41°
2026-05-05 18:34 -33.76073 18.17465 11038 ft 338 kts 41°
2026-05-05 18:34 -33.74193 18.19262 11371 ft 356 kts 41°
2026-05-05 18:34 -33.72211 18.21147 11822 ft 369 kts 41°
2026-05-05 18:35 -33.70189 18.23063 12484 ft 375 kts 41°
2026-05-05 18:35 -33.68130 18.25010 13178 ft 380 kts 41°
2026-05-05 18:35 -33.66022 18.27004 13893 ft 385 kts 41°
2026-05-05 18:35 -33.63923 18.28991 14516 ft 389 kts 41°
2026-05-05 18:36 -33.61793 18.31008 15147 ft 393 kts 41°
2026-05-05 18:36 -33.59617 18.33069 15794 ft 397 kts 41°
2026-05-05 18:36 -33.57440 18.35130 16417 ft 401 kts 41°
2026-05-05 18:36 -33.55251 18.37201 17066 ft 405 kts 42°
2026-05-05 18:37 -33.53035 18.39296 17720 ft 409 kts 42°
2026-05-05 18:37 -33.50778 18.41428 18371 ft 413 kts 42°
2026-05-05 18:37 -33.48528 18.43554 18960 ft 416 kts 42°
2026-05-05 18:37 -33.46253 18.45700 19579 ft 419 kts 42°
2026-05-05 18:38 -33.43955 18.47866 20187 ft 423 kts 42°
2026-05-05 18:38 -33.41618 18.50067 20790 ft 427 kts 43°
2026-05-05 18:38 -33.39287 18.52263 21389 ft 430 kts 43°
2026-05-05 18:38 -33.36933 18.54478 21977 ft 434 kts 43°
2026-05-05 18:39 -33.34532 18.56736 22556 ft 438 kts 43°
2026-05-05 18:39 -33.32150 18.58974 23140 ft 441 kts 43°
2026-05-05 18:39 -33.29702 18.61273 23719 ft 445 kts 43°
2026-05-05 18:39 -33.27265 18.63560 24197 ft 450 kts 43°
2026-05-05 18:40 -33.24807 18.65864 24648 ft 454 kts 43°
2026-05-05 18:40 -33.22318 18.68196 25091 ft 458 kts 43°
2026-05-05 18:40 -33.19732 18.70515 25534 ft 465 kts 38°
2026-05-05 18:40 -33.16903 18.72438 25968 ft 474 kts 28°
2026-05-05 18:41 -33.13788 18.73784 26404 ft 483 kts 17°
2026-05-05 18:41 -33.10460 18.74408 26846 ft 491 kts
2026-05-05 18:41 -33.07033 18.74262 27282 ft 497 kts 355°
2026-05-05 18:41 -33.03571 18.73748 27726 ft 501 kts 353°
2026-05-05 18:42 -33.00130 18.73102 28151 ft 506 kts 351°
2026-05-05 18:42 -32.96617 18.72391 28577 ft 509 kts 351°
2026-05-05 18:42 -32.93146 18.71684 28994 ft 513 kts 351°
2026-05-05 18:42 -32.89639 18.70988 29424 ft 516 kts 351°
2026-05-05 18:43 -32.86064 18.70297 29820 ft 519 kts 351°
2026-05-05 18:43 -32.82473 18.69619 30175 ft 523 kts 351°
2026-05-05 18:43 -32.78887 18.68953 30475 ft 526 kts 351°
2026-05-05 18:43 -32.75293 18.68291 30796 ft 528 kts 351°
2026-05-05 18:44 -32.71615 18.67614 31078 ft 531 kts 351°
2026-05-05 18:44 -32.67975 18.66945 31345 ft 534 kts 351°
2026-05-05 18:44 -32.64300 18.66269 31595 ft 537 kts 351°
2026-05-05 18:44 -32.60583 18.65586 31911 ft 538 kts 351°
2026-05-05 18:45 -32.56895 18.64908 32297 ft 537 kts 350°
2026-05-05 18:45 -32.53219 18.64233 32649 ft 537 kts 350°
2026-05-05 18:45 -32.49506 18.63552 33006 ft 537 kts 350°
2026-05-05 18:45 -32.45813 18.62874 33340 ft 538 kts 350°
2026-05-05 18:46 -32.42145 18.62201 33674 ft 538 kts 350°
2026-05-05 18:46 -32.38417 18.61518 34013 ft 538 kts 350°
2026-05-05 18:46 -32.34729 18.60844 34280 ft 538 kts 350°
2026-05-05 18:46 -32.31047 18.60171 34548 ft 538 kts 350°
2026-05-05 18:47 -32.27366 18.59499 34795 ft 538 kts 349°
2026-05-05 18:47 -32.23646 18.58820 35029 ft 538 kts 349°
2026-05-05 18:47 -32.19971 18.58150 35273 ft 538 kts 349°
2026-05-05 18:47 -32.16238 18.57469 35523 ft 538 kts 349°
2026-05-05 18:48 -32.12589 18.56804 35775 ft 538 kts 349°
2026-05-05 18:48 -32.08846 18.56123 36000 ft 538 kts 349°
2026-05-05 18:48 -32.05161 18.55453 36223 ft 538 kts 349°
2026-05-05 18:48 -32.01490 18.54787 36456 ft 537 kts 349°
2026-05-05 18:49 -31.97813 18.54120 36718 ft 536 kts 349°
2026-05-05 18:49 -31.94109 18.53448 36924 ft 536 kts 349°
2026-05-05 18:49 -31.90436 18.52782 37061 ft 538 kts 349°
2026-05-05 18:49 -31.86699 18.52105 37077 ft 540 kts 349°
2026-05-05 18:50 -31.79323 18.50770 37079 ft 539 kts 349°
2026-05-05 18:50 -31.71909 18.49432 37078 ft 539 kts 349°
2026-05-05 18:51 -31.65750 18.48322 37077 ft 539 kts 349°
2026-05-05 18:51 -31.57114 18.46768 37077 ft 539 kts 349°
2026-05-05 18:52 -31.49722 18.45440 37074 ft 538 kts 349°
2026-05-05 18:52 -31.42329 18.44114 37077 ft 538 kts 349°
2026-05-05 18:53 -31.36132 18.43004 37073 ft 538 kts 349°
2026-05-05 18:53 -31.28746 18.41682 37075 ft 542 kts 349°
2026-05-05 18:54 -31.21297 18.40351 37077 ft 544 kts 348°
2026-05-05 18:54 -31.12578 18.38798 37080 ft 544 kts 348°
2026-05-05 18:55 -31.06350 18.37689 37084 ft 544 kts 348°
2026-05-05 18:55 -30.98854 18.36358 37072 ft 543 kts 348°
2026-05-05 18:56 -30.91411 18.35037 37083 ft 544 kts 348°
2026-05-05 18:56 -30.83918 18.33709 37086 ft 544 kts 348°
2026-05-05 18:57 -30.76456 18.32389 37087 ft 544 kts 348°
2026-05-05 18:57 -30.68960 18.31066 37090 ft 543 kts 348°
2026-05-05 18:58 -30.61544 18.29759 37091 ft 543 kts 348°
2026-05-05 18:58 -30.54060 18.28440 37092 ft 543 kts 348°
2026-05-05 18:59 -30.46588 18.27127 37082 ft 543 kts 347°
2026-05-05 18:59 -30.39133 18.25818 37088 ft 542 kts 347°
2026-05-05 19:00 -30.31710 18.24517 37086 ft 542 kts 347°
2026-05-05 19:00 -30.24227 18.23206 37087 ft 543 kts 348°
2026-05-05 19:01 -30.16787 18.21907 37082 ft 542 kts 347°
2026-05-05 19:01 -30.09335 18.20607 37078 ft 542 kts 347°
2026-05-05 19:02 -30.01859 18.19304 37082 ft 542 kts 347°
2026-05-05 19:02 -29.94423 18.18009 37081 ft 542 kts 347°
2026-05-05 19:03 -29.86944 18.16710 37076 ft 542 kts 347°
2026-05-05 19:03 -29.79505 18.15421 37082 ft 543 kts 347°
2026-05-05 19:04 -29.72024 18.14126 37081 ft 543 kts 347°
2026-05-05 19:04 -29.64579 18.12839 37073 ft 542 kts 347°
2026-05-05 19:05 -29.57134 18.11554 37080 ft 542 kts 347°
2026-05-05 19:05 -29.49686 18.10269 37079 ft 542 kts 347°
2026-05-05 19:06 -29.42211 18.08982 37052 ft 542 kts 347°
2026-05-05 19:06 -29.34729 18.07697 37070 ft 541 kts 347°
2026-05-05 19:07 -29.27323 18.06426 37073 ft 540 kts 347°
2026-05-05 19:07 -29.19877 18.05150 37071 ft 540 kts 347°
2026-05-05 19:08 -29.12469 18.03882 37054 ft 540 kts 346°
2026-05-05 19:08 -29.05021 18.02610 37070 ft 540 kts 346°
2026-05-05 19:09 -28.97628 18.01348 37070 ft 540 kts 346°
2026-05-05 19:09 -28.90182 18.00079 37071 ft 540 kts 346°
2026-05-05 19:10 -28.82789 17.98820 37063 ft 540 kts 346°
2026-05-05 19:10 -28.75356 17.97558 37075 ft 539 kts 346°
2026-05-05 19:11 -28.67957 17.96303 37076 ft 539 kts 346°
2026-05-05 19:11 -28.60494 17.95039 37046 ft 540 kts 345°
2026-05-05 19:12 -28.53120 17.93792 37070 ft 539 kts 345°
2026-05-05 19:12 -28.45682 17.92536 37070 ft 539 kts 345°
2026-05-05 19:13 -28.38293 17.91289 37069 ft 539 kts 345°
2026-05-05 19:13 -28.30868 17.90038 37052 ft 538 kts 345°
2026-05-05 19:14 -28.23503 17.88801 37076 ft 536 kts 345°
2026-05-05 19:14 -28.16002 17.88019 37076 ft 541 kts 351°
2026-05-05 19:15 -28.08515 17.87591 37075 ft 542 kts 351°
2026-05-05 19:15 -28.00984 17.87113 37074 ft 540 kts 349°
2026-05-05 19:16 -27.93539 17.86563 37078 ft 538 kts 349°
2026-05-05 19:16 -27.86067 17.85976 37079 ft 538 kts 349°
2026-05-05 19:17 -27.78606 17.85388 37081 ft 538 kts 349°
2026-05-05 19:17 -27.71175 17.84810 37079 ft 536 kts 348°
2026-05-05 19:18 -27.63746 17.84236 37080 ft 534 kts 348°
2026-05-05 19:18 -27.56329 17.83661 37082 ft 534 kts 348°
2026-05-05 19:19 -27.48958 17.83061 37017 ft 532 kts 346°
2026-05-05 19:19 -27.41677 17.81905 37085 ft 524 kts 342°
2026-05-05 19:20 -27.34505 17.80557 37069 ft 524 kts 342°
2026-05-05 19:20 -27.27312 17.79278 37066 ft 525 kts 343°
2026-05-05 19:21 -27.20078 17.78061 37078 ft 525 kts 343°
2026-05-05 19:21 -27.12848 17.76867 37067 ft 525 kts 343°
2026-05-05 19:22 -27.05655 17.75681 37083 ft 525 kts 343°
2026-05-05 19:22 -26.98410 17.74485 37073 ft 525 kts 343°
2026-05-05 19:23 -26.91193 17.73291 37068 ft 527 kts 343°
2026-05-05 19:23 -26.83955 17.72098 37082 ft 526 kts 343°
2026-05-05 19:24 -26.76669 17.70899 37086 ft 526 kts 343°
2026-05-05 19:24 -26.69462 17.69713 37086 ft 526 kts 343°
2026-05-05 19:25 -26.62224 17.68524 37075 ft 525 kts 342°
2026-05-05 19:25 -26.55030 17.67345 37091 ft 523 kts 342°
2026-05-05 19:26 -26.47820 17.66163 37084 ft 522 kts 343°
2026-05-05 19:26 -26.40613 17.64982 37089 ft 523 kts 342°
2026-05-05 19:27 -26.33441 17.63809 37088 ft 522 kts 342°
2026-05-05 19:27 -26.26267 17.62640 37099 ft 518 kts 342°
2026-05-05 19:28 -26.19181 17.61483 37095 ft 517 kts 342°
2026-05-05 19:28 -26.12069 17.60320 37092 ft 517 kts 342°
2026-05-05 19:29 -26.04968 17.59162 37089 ft 517 kts 342°
2026-05-05 19:29 -25.97845 17.58005 37106 ft 514 kts 342°
2026-05-05 19:30 -25.90804 17.56862 37108 ft 513 kts 342°
2026-05-05 19:30 -25.83722 17.55711 37105 ft 513 kts 342°
2026-05-05 19:31 -25.76653 17.54564 37074 ft 513 kts 342°
2026-05-05 19:31 -25.69633 17.53431 37105 ft 509 kts 342°
2026-05-05 19:32 -25.62653 17.52305 37108 ft 508 kts 342°
2026-05-05 19:32 -25.55674 17.51175 37111 ft 508 kts 342°
2026-05-05 19:33 -25.48678 17.50043 37051 ft 507 kts 342°
2026-05-05 19:33 -25.41747 17.48929 37112 ft 504 kts 342°
2026-05-05 19:34 -25.34797 17.47811 37111 ft 502 kts 342°
2026-05-05 19:35 -25.24430 17.46141 37118 ft 503 kts 342°
2026-05-05 19:35 -25.17548 17.45036 37105 ft 503 kts 342°
2026-05-05 19:36 -25.10618 17.43926 37120 ft 502 kts 342°
2026-05-05 19:36 -25.03730 17.42823 37116 ft 502 kts 342°
2026-05-05 19:37 -24.96804 17.41720 37118 ft 502 kts 342°
2026-05-05 19:37 -24.89913 17.40615 37067 ft 501 kts 342°
2026-05-05 19:38 -24.82990 17.39505 37125 ft 503 kts 342°
2026-05-05 19:38 -24.76064 17.38395 37125 ft 507 kts 342°
2026-05-05 19:39 -24.69057 17.37279 37125 ft 507 kts 342°
2026-05-05 19:39 -24.62108 17.36176 37124 ft 507 kts 342°
2026-05-05 19:40 -24.55142 17.35069 37117 ft 507 kts 342°
2026-05-05 19:40 -24.48150 17.33959 37132 ft 507 kts 342°
2026-05-05 19:41 -24.41160 17.32851 37133 ft 507 kts 342°
2026-05-05 19:41 -24.34204 17.31756 37140 ft 507 kts 342°
2026-05-05 19:42 -24.27210 17.30657 37140 ft 507 kts 342°
2026-05-05 19:42 -24.20233 17.29562 37140 ft 507 kts 342°
2026-05-05 19:43 -24.13285 17.28472 37124 ft 507 kts 342°
2026-05-05 19:43 -24.06301 17.27378 37124 ft 507 kts 342°
2026-05-05 19:44 -23.99327 17.26286 37113 ft 507 kts 342°
2026-05-05 19:44 -23.92331 17.25191 37130 ft 508 kts 342°
2026-05-05 19:45 -23.85316 17.24095 37127 ft 508 kts 342°
2026-05-05 19:45 -23.78344 17.23008 37127 ft 508 kts 342°
2026-05-05 19:46 -23.71349 17.21918 37086 ft 508 kts 343°
2026-05-05 19:46 -23.64354 17.20828 37119 ft 509 kts 343°
2026-05-05 19:47 -23.57334 17.19704 37118 ft 508 kts 342°
2026-05-05 19:47 -23.50321 17.18568 37127 ft 508 kts 342°
2026-05-05 19:48 -23.43372 17.17446 37127 ft 509 kts 342°
2026-05-05 19:48 -23.36340 17.16318 37124 ft 508 kts 343°
2026-05-05 19:49 -23.29378 17.15196 37123 ft 507 kts 343°
2026-05-05 19:49 -23.22406 17.14071 37120 ft 507 kts 343°
2026-05-05 19:50 -23.15418 17.12938 37116 ft 506 kts 342°
2026-05-05 19:50 -23.08579 17.11410 37114 ft 501 kts 339°
2026-05-05 19:51 -23.01791 17.09685 37110 ft 500 kts 339°
2026-05-05 19:51 -22.94999 17.08013 37125 ft 500 kts 339°
2026-05-05 19:52 -22.88231 17.06404 37154 ft 501 kts 339°
2026-05-05 19:52 -22.81410 17.04804 37135 ft 501 kts 339°
2026-05-05 19:53 -22.74610 17.03210 37213 ft 502 kts 340°
2026-05-05 19:53 -22.67773 17.01607 37233 ft 502 kts 340°
2026-05-05 19:54 -22.60935 17.00004 37231 ft 502 kts 340°
2026-05-05 19:54 -22.54126 16.98409 37228 ft 502 kts 340°
2026-05-05 19:55 -22.47327 16.96823 37111 ft 500 kts 340°
2026-05-05 19:55 -22.40536 16.95248 37111 ft 496 kts 340°
2026-05-05 19:56 -22.33825 16.93668 37110 ft 495 kts 340°
2026-05-05 19:56 -22.27093 16.92062 37107 ft 495 kts 340°
2026-05-05 19:57 -22.20354 16.90493 37067 ft 496 kts 341°
2026-05-05 19:57 -22.13655 16.88986 37104 ft 493 kts 341°
2026-05-05 19:58 -22.06935 16.87477 37102 ft 491 kts 341°
2026-05-05 19:58 -22.00286 16.85940 37102 ft 491 kts 340°
2026-05-05 19:59 -21.93600 16.84385 37104 ft 491 kts 340°
2026-05-05 19:59 -21.86924 16.82840 37100 ft 491 kts 341°
2026-05-05 20:00 -21.80282 16.81309 37107 ft 489 kts 341°
2026-05-05 20:00 -21.73607 16.79772 37105 ft 489 kts 341°
2026-05-05 20:01 -21.66979 16.78247 37103 ft 489 kts 341°
2026-05-05 20:01 -21.60305 16.76713 37105 ft 489 kts 341°
2026-05-05 20:02 -21.53660 16.75187 37097 ft 490 kts 341°
2026-05-05 20:02 -21.47006 16.73660 37101 ft 490 kts 341°
2026-05-05 20:03 -21.40358 16.72137 37099 ft 490 kts 341°
2026-05-05 20:03 -21.33704 16.70613 37094 ft 490 kts 341°
2026-05-05 20:04 -21.27037 16.69088 37094 ft 491 kts 341°
2026-05-05 20:04 -21.20350 16.67559 37094 ft 491 kts 341°
2026-05-05 20:05 -21.13676 16.66036 37093 ft 491 kts 341°
2026-05-05 20:05 -21.06977 16.64508 37095 ft 491 kts 341°
2026-05-05 20:06 -21.00305 16.62988 37094 ft 491 kts 341°
2026-05-05 20:06 -20.93612 16.61459 37100 ft 492 kts 341°
2026-05-05 20:07 -20.86942 16.59936 37096 ft 492 kts 341°
2026-05-05 20:07 -20.80240 16.58407 37094 ft 492 kts 341°
2026-05-05 20:08 -20.73560 16.56885 37086 ft 492 kts 341°
2026-05-05 20:08 -20.67949 16.55608 37085 ft 492 kts 341°
2026-05-05 20:09 -20.61282 16.54091 37082 ft 493 kts 341°
2026-05-05 20:09 -20.54555 16.52563 37077 ft 493 kts 341°
2026-05-05 20:10 -20.47868 16.51045 37079 ft 493 kts 341°
2026-05-05 20:10 -20.41169 16.49526 37068 ft 493 kts 341°
2026-05-05 20:11 -20.34437 16.48000 37077 ft 493 kts 341°
2026-05-05 20:11 -20.27775 16.46493 37065 ft 491 kts 342°
2026-05-05 20:12 -20.21080 16.44979 37067 ft 490 kts 342°
2026-05-05 20:12 -20.14444 16.43478 37065 ft 490 kts 342°
2026-05-05 20:13 -20.07757 16.41967 37061 ft 490 kts 342°
2026-05-05 20:13 -20.01116 16.40468 37052 ft 490 kts 342°
2026-05-05 20:14 -19.94463 16.38969 37057 ft 489 kts 342°
2026-05-05 20:14 -19.87789 16.37466 37058 ft 489 kts 342°
2026-05-05 20:15 -19.81146 16.35971 37053 ft 489 kts 342°
2026-05-05 20:15 -19.74487 16.34473 37058 ft 489 kts 342°
2026-05-05 20:16 -19.67851 16.32982 37044 ft 489 kts 342°
2026-05-05 20:16 -19.61173 16.31483 37046 ft 489 kts 342°
2026-05-05 20:17 -19.54514 16.29990 37038 ft 489 kts 342°
2026-05-05 20:17 -19.47863 16.28500 37037 ft 489 kts 342°
2026-05-05 20:18 -19.41216 16.27011 37026 ft 489 kts 342°
2026-05-05 20:18 -19.34544 16.25519 37025 ft 489 kts 342°
2026-05-05 20:19 -19.27885 16.24031 37015 ft 489 kts 342°
2026-05-05 20:19 -19.21246 16.22548 37012 ft 489 kts 342°
2026-05-05 20:20 -19.14622 16.21069 37003 ft 489 kts 342°
2026-05-05 20:20 -19.07965 16.19585 37009 ft 489 kts 342°
2026-05-05 20:21 -19.01334 16.18108 37000 ft 488 kts 342°
2026-05-05 20:21 -18.94685 16.16628 36999 ft 487 kts 342°
2026-05-05 20:22 -18.88054 16.15153 36993 ft 487 kts 342°
2026-05-05 20:22 -18.81441 16.13683 36993 ft 487 kts 342°
2026-05-05 20:23 -18.74799 16.12208 36976 ft 488 kts 342°
2026-05-05 20:23 -18.68144 16.10732 36987 ft 487 kts 341°
2026-05-05 20:24 -18.61553 16.09270 36987 ft 486 kts 341°
2026-05-05 20:24 -18.54928 16.07802 36985 ft 486 kts 341°
2026-05-05 20:25 -18.48294 16.06331 36990 ft 486 kts 341°
2026-05-05 20:25 -18.41687 16.04866 36974 ft 486 kts 341°
2026-05-05 20:26 -18.35051 16.03396 36991 ft 485 kts 341°
2026-05-05 20:26 -18.28471 16.01939 36991 ft 484 kts 341°
2026-05-05 20:27 -18.21864 16.00477 36990 ft 484 kts 341°
2026-05-05 20:27 -18.15293 15.99025 36992 ft 485 kts 341°
2026-05-05 20:28 -18.08705 15.97569 36993 ft 486 kts 341°
2026-05-05 20:28 -18.02090 15.96109 36993 ft 486 kts 341°
2026-05-05 20:29 -17.95469 15.94650 36993 ft 486 kts 341°
2026-05-05 20:29 -17.88877 15.93198 36991 ft 486 kts 341°
2026-05-05 20:30 -17.82255 15.91740 36991 ft 486 kts 341°
2026-05-05 20:30 -17.75624 15.90282 36974 ft 486 kts 341°
2026-05-05 20:31 -17.69022 15.88832 36986 ft 484 kts 341°
2026-05-05 20:31 -17.62455 15.87389 36979 ft 484 kts 341°
2026-05-05 20:32 -17.55858 15.85941 36979 ft 484 kts 341°
2026-05-05 20:32 -17.49266 15.84495 36977 ft 484 kts 341°
2026-05-05 20:33 -17.42679 15.83051 36969 ft 484 kts 341°
2026-05-05 20:33 -17.36121 15.81549 36975 ft 482 kts 339°
2026-05-05 20:34 -17.29725 15.79532 36973 ft 479 kts 335°
2026-05-05 20:34 -17.23400 15.77405 36970 ft 479 kts 336°
2026-05-05 20:35 -17.17043 15.75349 36971 ft 479 kts 336°
2026-05-05 20:35 -17.10629 15.73333 36956 ft 480 kts 337°
2026-05-05 20:36 -17.04238 15.71341 36971 ft 481 kts 337°
2026-05-05 20:36 -16.97856 15.69352 36972 ft 481 kts 337°
2026-05-05 20:37 -16.91420 15.67344 36964 ft 481 kts 337°
2026-05-05 20:37 -16.85029 15.65351 36960 ft 481 kts 337°
2026-05-05 20:38 -16.78639 15.63359 36945 ft 481 kts 337°
2026-05-05 20:38 -16.72227 15.61361 36972 ft 482 kts 337°
2026-05-05 20:39 -16.65779 15.59355 36972 ft 482 kts 337°
2026-05-05 20:39 -16.59378 15.57364 36970 ft 482 kts 337°
2026-05-05 20:40 -16.52951 15.55367 36972 ft 482 kts 337°
2026-05-05 20:40 -16.46510 15.53367 36972 ft 482 kts 337°
2026-05-05 20:41 -16.40067 15.51367 36973 ft 483 kts 337°
2026-05-05 20:41 -16.33638 15.49372 36964 ft 484 kts 337°
2026-05-05 20:42 -16.27172 15.47369 36968 ft 484 kts 337°
2026-05-05 20:42 -16.20750 15.45380 36972 ft 484 kts 337°
2026-05-05 20:43 -16.14287 15.43380 36972 ft 484 kts 337°
2026-05-05 20:43 -16.07859 15.41390 36970 ft 485 kts 337°
2026-05-05 20:44 -16.01380 15.39388 36972 ft 485 kts 337°
2026-05-05 20:44 -15.94918 15.37392 36972 ft 485 kts 337°
2026-05-05 20:45 -15.85216 15.34398 36975 ft 485 kts 337°
2026-05-05 20:45 -15.78761 15.32407 36959 ft 485 kts 338°
2026-05-05 20:46 -15.72259 15.30403 36973 ft 486 kts 338°
2026-05-05 20:46 -15.65795 15.28412 36978 ft 487 kts 338°
2026-05-05 20:47 -15.59296 15.26413 36978 ft 487 kts 338°
2026-05-05 20:47 -15.52832 15.24425 36982 ft 487 kts 338°
2026-05-05 20:48 -15.46316 15.22422 36979 ft 487 kts 338°
2026-05-05 20:48 -15.39832 15.20430 36981 ft 488 kts 338°
2026-05-05 20:49 -15.33339 15.18437 36980 ft 488 kts 338°
2026-05-05 20:49 -15.26805 15.16433 36985 ft 488 kts 338°
2026-05-05 20:50 -15.20312 15.14443 36983 ft 488 kts 338°
2026-05-05 20:50 -15.13789 15.12445 36985 ft 488 kts 338°
2026-05-05 20:51 -15.07284 15.10453 36992 ft 489 kts 338°
2026-05-05 20:51 -15.00741 15.08450 36990 ft 490 kts 338°
2026-05-05 20:52 -14.94227 15.06459 36992 ft 490 kts 338°
2026-05-05 20:52 -14.87689 15.04462 36991 ft 490 kts 338°
2026-05-05 20:53 -14.81156 15.02467 36995 ft 490 kts 338°
2026-05-05 20:53 -14.74645 15.00479 36993 ft 490 kts 338°
2026-05-05 20:54 -14.68098 14.98483 36995 ft 490 kts 338°
2026-05-05 20:54 -14.61586 14.96498 36998 ft 490 kts 338°
2026-05-05 20:55 -14.55068 14.94512 36993 ft 490 kts 338°
2026-05-05 20:55 -14.48516 14.92518 37000 ft 490 kts 338°
2026-05-05 20:56 -14.42006 14.90536 36998 ft 490 kts 338°
2026-05-05 20:56 -14.35495 14.88556 37005 ft 490 kts 338°
2026-05-05 20:57 -14.28929 14.86561 37009 ft 491 kts 338°
2026-05-05 20:57 -14.22371 14.84570 37009 ft 491 kts 338°
2026-05-05 20:58 -14.15860 14.82594 37016 ft 491 kts 338°
2026-05-05 20:58 -14.09301 14.80604 37007 ft 490 kts 339°
2026-05-05 20:59 -14.02779 14.78627 37022 ft 491 kts 339°
2026-05-05 20:59 -13.96239 14.76646 37026 ft 491 kts 339°
2026-05-05 21:00 -13.89697 14.74666 37025 ft 491 kts 339°
2026-05-05 21:00 -13.83146 14.72683 37026 ft 491 kts 339°
2026-05-05 21:01 -13.76583 14.70698 37014 ft 491 kts 339°
2026-05-05 21:01 -13.70054 14.68724 37028 ft 491 kts 339°
2026-05-05 21:02 -13.63486 14.66741 37031 ft 491 kts 339°
2026-05-05 21:02 -13.56973 14.64774 37029 ft 491 kts 339°
2026-05-05 21:03 -13.50431 14.62800 37023 ft 491 kts 339°
2026-05-05 21:03 -13.43854 14.60817 37020 ft 491 kts 339°
2026-05-05 21:04 -13.37335 14.58852 37022 ft 491 kts 339°
2026-05-05 21:04 -13.30769 14.56874 37015 ft 491 kts 339°
2026-05-05 21:05 -13.24190 14.54894 37015 ft 491 kts 339°
2026-05-05 21:05 -13.17672 14.52933 37013 ft 491 kts 339°
2026-05-05 21:06 -13.11112 14.50960 37011 ft 491 kts 339°
2026-05-05 21:06 -13.04532 14.48982 37001 ft 491 kts 339°
2026-05-05 21:07 -12.97988 14.47016 37003 ft 492 kts 339°
2026-05-05 21:07 -12.91426 14.45046 37005 ft 492 kts 339°
2026-05-05 21:08 -12.84876 14.43082 37005 ft 491 kts 339°
2026-05-05 21:08 -12.78333 14.41120 37011 ft 491 kts 339°
2026-05-05 21:09 -12.71745 14.39145 37008 ft 491 kts 339°
2026-05-05 21:09 -12.65197 14.37183 37022 ft 492 kts 339°
2026-05-05 21:10 -12.58639 14.35220 37009 ft 492 kts 339°
2026-05-05 21:10 -12.52073 14.33255 37012 ft 492 kts 339°
2026-05-05 21:11 -12.45488 14.31286 37012 ft 492 kts 339°
2026-05-05 21:11 -12.38931 14.29326 37013 ft 492 kts 339°
2026-05-05 21:12 -12.32366 14.27363 37018 ft 493 kts 339°
2026-05-05 21:12 -12.25789 14.25399 37017 ft 493 kts 339°
2026-05-05 21:13 -12.19174 14.23426 37015 ft 493 kts 339°
2026-05-05 21:13 -12.12617 14.21470 36999 ft 493 kts 339°
2026-05-05 21:14 -12.06006 14.19500 36996 ft 493 kts 339°
2026-05-05 21:14 -11.99434 14.17541 36994 ft 494 kts 340°
2026-05-05 21:15 -11.92852 14.15580 36990 ft 495 kts 340°
2026-05-05 21:15 -11.86223 14.13607 36991 ft 495 kts 340°
2026-05-05 21:16 -11.79637 14.11648 36987 ft 495 kts 340°
2026-05-05 21:16 -11.73008 14.09677 36984 ft 495 kts 340°
2026-05-05 21:17 -11.66424 14.07719 36982 ft 495 kts 340°
2026-05-05 21:17 -11.59799 14.05751 36969 ft 495 kts 340°
2026-05-05 21:18 -11.53210 14.03795 36968 ft 495 kts 340°
2026-05-05 21:18 -11.46555 14.01820 36973 ft 495 kts 340°
2026-05-05 21:19 -11.39953 13.99861 36962 ft 495 kts 340°
2026-05-05 21:19 -11.33358 13.97906 36960 ft 495 kts 340°
2026-05-05 21:20 -11.26749 13.95947 36964 ft 495 kts 340°
2026-05-05 21:20 -11.21249 13.94318 36963 ft 495 kts 340°
2026-05-05 21:21 -11.13534 13.92034 36953 ft 495 kts 340°
2026-05-05 21:21 -11.07986 13.90391 36952 ft 495 kts 340°
2026-05-05 21:22 -11.01382 13.88438 36949 ft 495 kts 340°
2026-05-05 21:22 -10.94793 13.86488 36953 ft 495 kts 341°
2026-05-05 21:23 -10.88154 13.84527 36952 ft 496 kts 341°
2026-05-05 21:23 -10.81548 13.82576 36948 ft 496 kts 341°
2026-05-05 21:24 -10.74893 13.80611 36957 ft 496 kts 341°
2026-05-05 21:24 -10.68277 13.78649 36949 ft 496 kts 341°
2026-05-05 21:25 -10.61669 13.76688 36945 ft 496 kts 341°
2026-05-05 21:25 -10.55060 13.74728 36946 ft 496 kts 341°
2026-05-05 21:26 -10.48427 13.72764 36955 ft 496 kts 341°
2026-05-05 21:26 -10.41810 13.70806 36949 ft 496 kts 341°
2026-05-05 21:27 -10.35160 13.68839 36948 ft 496 kts 341°
2026-05-05 21:27 -10.28570 13.66889 36949 ft 496 kts 341°
2026-05-05 21:28 -10.21926 13.64926 36957 ft 497 kts 342°
2026-05-05 21:28 -10.15309 13.62970 36955 ft 497 kts 342°
2026-05-05 21:29 -10.08663 13.61015 36968 ft 497 kts 342°
2026-05-05 21:29 -10.02010 13.59064 36955 ft 497 kts 342°
2026-05-05 21:30 -9.95383 13.57120 36963 ft 497 kts 342°
2026-05-05 21:30 -9.88751 13.55175 36965 ft 497 kts 342°
2026-05-05 21:31 -9.82089 13.53224 36955 ft 498 kts 342°
2026-05-05 21:31 -9.75458 13.51281 36956 ft 498 kts 342°
2026-05-05 21:32 -9.68780 13.49326 36955 ft 498 kts 342°
2026-05-05 21:32 -9.62154 13.47387 36956 ft 499 kts 342°
2026-05-05 21:33 -9.55469 13.45431 36949 ft 499 kts 343°
2026-05-05 21:33 -9.48787 13.43476 36947 ft 499 kts 343°
2026-05-05 21:34 -9.42153 13.41537 36950 ft 499 kts 343°
2026-05-05 21:34 -9.35464 13.39583 36952 ft 499 kts 343°
2026-05-05 21:35 -9.28810 13.37639 36949 ft 499 kts 343°
2026-05-05 21:35 -9.22156 13.35696 36953 ft 499 kts 343°
2026-05-05 21:36 -9.15482 13.33749 36952 ft 499 kts 343°
2026-05-05 21:36 -9.08835 13.31809 36941 ft 499 kts 343°
2026-05-05 21:37 -9.02152 13.29860 36942 ft 499 kts 343°
2026-05-05 21:37 -8.95532 13.27931 36944 ft 499 kts 343°
2026-05-05 21:38 -8.88836 13.25979 36935 ft 499 kts 343°
2026-05-05 21:38 -8.82308 13.23766 36927 ft 497 kts 338°
2026-05-05 21:39 -8.75902 13.21143 36926 ft 494 kts 337°
2026-05-05 21:39 -8.69605 13.18496 36932 ft 493 kts 336°
2026-05-05 21:40 -8.63245 13.15821 36935 ft 493 kts 337°
2026-05-05 21:40 -8.56930 13.13177 36938 ft 494 kts 336°
2026-05-05 21:41 -8.50548 13.10509 36952 ft 495 kts 337°
2026-05-05 21:41 -8.44199 13.07857 36957 ft 494 kts 337°
2026-05-05 21:42 -8.37882 13.05220 36958 ft 492 kts 337°
2026-05-05 21:42 -8.31556 13.02580 36957 ft 491 kts 337°
2026-05-05 21:43 -8.25268 12.99956 36955 ft 492 kts 337°
2026-05-05 21:43 -8.18920 12.97307 36954 ft 492 kts 337°
2026-05-05 21:44 -8.12617 12.94679 36948 ft 492 kts 337°
2026-05-05 21:44 -8.06287 12.92041 36948 ft 491 kts 337°
2026-05-05 21:45 -7.99986 12.89415 36956 ft 491 kts 337°
2026-05-05 21:45 -7.93691 12.86792 36957 ft 491 kts 337°
2026-05-05 21:46 -7.87397 12.84171 36947 ft 491 kts 337°
2026-05-05 21:46 -7.81081 12.81542 36944 ft 491 kts 337°
2026-05-05 21:47 -7.74762 12.78912 36949 ft 491 kts 337°
2026-05-05 21:47 -7.68481 12.76298 36946 ft 490 kts 338°
2026-05-05 21:48 -7.62189 12.73681 36959 ft 489 kts 338°
2026-05-05 21:48 -7.55874 12.71056 36958 ft 489 kts 338°
2026-05-05 21:49 -7.49614 12.68454 36944 ft 489 kts 338°
2026-05-05 21:49 -7.43300 12.65831 36949 ft 490 kts 338°
2026-05-05 21:50 -7.37002 12.63214 36942 ft 490 kts 338°
2026-05-05 21:50 -7.30718 12.60605 36942 ft 490 kts 338°
2026-05-05 21:51 -7.24393 12.57979 36960 ft 491 kts 338°
2026-05-05 21:51 -7.18073 12.55356 36960 ft 490 kts 338°
2026-05-05 21:52 -7.08656 12.51450 36959 ft 491 kts 338°
2026-05-05 21:53 -7.02326 12.48825 36957 ft 490 kts 338°
2026-05-05 21:53 -6.96029 12.46214 36960 ft 490 kts 338°
2026-05-05 21:54 -6.89710 12.43592 36944 ft 490 kts 338°
2026-05-05 21:54 -6.83420 12.40983 36958 ft 490 kts 338°
2026-05-05 21:55 -6.77115 12.38368 36948 ft 490 kts 338°
2026-05-05 21:55 -6.70821 12.35759 36941 ft 489 kts 338°
2026-05-05 21:56 -6.64552 12.33161 36951 ft 490 kts 338°
2026-05-05 21:56 -6.58242 12.30547 36947 ft 490 kts 338°
2026-05-05 21:57 -6.51952 12.27942 36947 ft 490 kts 338°
2026-05-05 21:57 -6.45634 12.25325 36946 ft 490 kts 338°
2026-05-05 21:58 -6.39346 12.22723 36943 ft 490 kts 338°
2026-05-05 21:58 -6.33054 12.20119 36946 ft 490 kts 338°
2026-05-05 21:59 -6.26753 12.17512 36939 ft 488 kts 338°
2026-05-05 21:59 -6.20511 12.14930 36944 ft 486 kts 338°
2026-05-05 22:00 -6.14250 12.12341 36943 ft 486 kts 338°
2026-05-05 22:00 -6.08017 12.09764 36940 ft 486 kts 338°
2026-05-05 22:01 -6.01756 12.07176 36941 ft 486 kts 338°
2026-05-05 22:01 -5.95492 12.04588 36940 ft 486 kts 338°
2026-05-05 22:02 -5.89245 12.02007 36935 ft 488 kts 338°
2026-05-05 22:02 -5.82924 11.99397 36934 ft 489 kts 338°
2026-05-05 22:03 -5.76654 11.96808 36932 ft 489 kts 338°
2026-05-05 22:03 -5.70373 11.94215 36931 ft 488 kts 338°
2026-05-05 22:04 -5.64086 11.91620 36935 ft 488 kts 338°
2026-05-05 22:04 -5.57810 11.89031 36930 ft 488 kts 338°
2026-05-05 22:05 -5.51559 11.86452 36934 ft 488 kts 338°
2026-05-05 22:05 -5.45264 11.83856 36926 ft 488 kts 338°
2026-05-05 22:06 -5.38984 11.81267 36933 ft 488 kts 338°
2026-05-05 22:06 -5.32732 11.78689 36923 ft 488 kts 338°
2026-05-05 22:07 -5.26447 11.76099 36931 ft 488 kts 338°
2026-05-05 22:07 -5.20158 11.73508 36937 ft 488 kts 338°
2026-05-05 22:08 -5.13886 11.70992 36938 ft 489 kts 342°
2026-05-05 22:08 -5.07236 11.69536 36937 ft 487 kts 351°
2026-05-05 22:09 -5.00546 11.68540 36934 ft 488 kts 352°
2026-05-05 22:09 -4.93834 11.67609 36941 ft 487 kts 353°
2026-05-05 22:10 -4.87100 11.66665 36941 ft 487 kts 352°
2026-05-05 22:10 -4.80423 11.65715 36941 ft 487 kts 352°
2026-05-05 22:11 -4.73688 11.64751 36937 ft 487 kts 352°
2026-05-05 22:11 -4.66989 11.63792 36936 ft 487 kts 352°
2026-05-05 22:12 -4.60311 11.62836 36939 ft 487 kts 352°
2026-05-05 22:12 -4.53585 11.61874 36939 ft 487 kts 352°
2026-05-05 22:13 -4.46891 11.60917 36933 ft 487 kts 353°
2026-05-05 22:13 -4.40159 11.59955 36940 ft 488 kts 353°
2026-05-05 22:14 -4.33427 11.58993 36934 ft 488 kts 353°
2026-05-05 22:14 -4.26734 11.58036 36940 ft 488 kts 353°
2026-05-05 22:15 -4.20003 11.57075 36945 ft 488 kts 353°
2026-05-05 22:15 -4.13319 11.56120 36945 ft 488 kts 353°
2026-05-05 22:16 -4.06565 11.55156 36944 ft 488 kts 353°
2026-05-05 22:16 -3.99868 11.54199 36947 ft 488 kts 353°
2026-05-05 22:17 -3.93135 11.53238 36950 ft 488 kts 353°
2026-05-05 22:17 -3.86415 11.52279 36946 ft 488 kts 353°
2026-05-05 22:18 -3.79721 11.51324 36945 ft 488 kts 353°
2026-05-05 22:18 -3.73016 11.50367 36951 ft 489 kts 352°
2026-05-05 22:19 -3.66230 11.49399 36954 ft 493 kts 352°
2026-05-05 22:19 -3.59462 11.48434 36951 ft 494 kts 352°
2026-05-05 22:20 -3.52644 11.47461 36958 ft 494 kts 352°
2026-05-05 22:20 -3.45818 11.46488 36959 ft 494 kts 352°
2026-05-05 22:21 -3.39029 11.45520 36956 ft 494 kts 352°
2026-05-05 22:21 -3.32270 11.44556 36956 ft 493 kts 353°
2026-05-05 22:22 -3.25450 11.43583 36957 ft 492 kts 353°
2026-05-05 22:22 -3.18667 11.42617 36959 ft 492 kts 353°
2026-05-05 22:23 -3.11914 11.41655 36955 ft 492 kts 353°
2026-05-05 22:23 -3.05138 11.40689 36958 ft 492 kts 353°
2026-05-05 22:24 -2.98373 11.39726 36958 ft 492 kts 353°
2026-05-05 22:24 -2.91566 11.38756 36954 ft 493 kts 353°
2026-05-05 22:25 -2.84789 11.37791 36956 ft 493 kts 353°
2026-05-05 22:25 -2.78007 11.36825 36951 ft 493 kts 353°
2026-05-05 22:26 -2.71234 11.35860 36953 ft 493 kts 353°
2026-05-05 22:26 -2.64422 11.34890 36953 ft 493 kts 353°
2026-05-05 22:27 -2.57620 11.33897 36944 ft 495 kts 350°
2026-05-05 22:27 -2.50921 11.32398 36954 ft 497 kts 347°
2026-05-05 22:28 -2.44189 11.30769 36946 ft 497 kts 347°
2026-05-05 22:28 -2.37474 11.29123 36954 ft 496 kts 347°
2026-05-05 22:29 -2.30797 11.27494 36956 ft 495 kts 347°
2026-05-05 22:29 -2.24111 11.25869 36951 ft 495 kts 347°
2026-05-05 22:30 -2.17410 11.24241 36961 ft 497 kts 347°
2026-05-05 22:30 -2.10715 11.22616 36960 ft 497 kts 347°
2026-05-05 22:31 -2.03996 11.20984 36959 ft 497 kts 347°
2026-05-05 22:31 -1.97253 11.19347 36951 ft 497 kts 347°
2026-05-05 22:32 -1.90545 11.17718 36954 ft 497 kts 347°
2026-05-05 22:32 -1.84952 11.16360 36968 ft 498 kts 347°
2026-05-05 22:33 -1.78232 11.14729 36965 ft 499 kts 347°
2026-05-05 22:33 -1.71446 11.13082 36961 ft 499 kts 347°
2026-05-05 22:34 -1.64698 11.11448 36978 ft 499 kts 347°
2026-05-05 22:34 -1.56868 11.09545 36958 ft 499 kts 347°
2026-05-05 22:35 -1.51206 11.08169 36964 ft 499 kts 347°
2026-05-05 22:35 -1.44487 11.06538 36966 ft 500 kts 347°
2026-05-05 22:36 -1.37698 11.04890 36967 ft 501 kts 347°
2026-05-05 22:36 -1.30948 11.03252 36977 ft 501 kts 347°
2026-05-05 22:37 -1.24192 11.01613 36962 ft 501 kts 347°
2026-05-05 22:37 -1.17413 10.99968 36966 ft 501 kts 347°
2026-05-05 22:38 -1.10655 10.98329 36963 ft 501 kts 347°
2026-05-05 22:38 -1.03859 10.96680 36950 ft 501 kts 347°
2026-05-05 22:39 -0.97112 10.95043 36964 ft 501 kts 347°
2026-05-05 22:39 -0.90322 10.93395 36952 ft 501 kts 347°
2026-05-05 22:40 -0.83581 10.91760 36967 ft 501 kts 347°
2026-05-05 22:40 -0.76789 10.90113 36951 ft 501 kts 347°
2026-05-05 22:41 -0.70003 10.88464 36960 ft 500 kts 347°
2026-05-05 22:41 -0.63289 10.86832 36939 ft 498 kts 347°
2026-05-05 22:42 -0.56541 10.85196 36950 ft 498 kts 347°
2026-05-05 22:42 -0.49793 10.83559 36948 ft 498 kts 347°
2026-05-05 22:43 -0.43060 10.81925 36945 ft 498 kts 347°
2026-05-05 22:43 -0.36358 10.80298 36943 ft 498 kts 347°
2026-05-05 22:44 -0.29636 10.78666 36931 ft 498 kts 347°
2026-05-05 22:44 -0.22893 10.77030 36942 ft 498 kts 347°
2026-05-05 22:45 -0.16171 10.75398 36942 ft 498 kts 347°
2026-05-05 22:45 -0.09420 10.73759 36932 ft 498 kts 347°
2026-05-05 22:46 -0.02705 10.72129 36945 ft 498 kts 347°
2026-05-05 22:46 0.04035 10.70492 36945 ft 498 kts 347°
2026-05-05 22:47 0.10800 10.68847 36946 ft 498 kts 347°
2026-05-05 22:47 0.17526 10.67212 36951 ft 498 kts 347°
2026-05-05 22:48 0.24221 10.65585 36951 ft 498 kts 347°
2026-05-05 22:48 0.30952 10.63949 36958 ft 498 kts 347°
2026-05-05 22:49 0.37681 10.62314 36957 ft 498 kts 347°
2026-05-05 22:49 0.44423 10.60675 36958 ft 497 kts 347°
2026-05-05 22:50 0.51115 10.59050 36965 ft 497 kts 347°
2026-05-05 22:50 0.57844 10.57418 36969 ft 497 kts 347°
2026-05-05 22:51 0.64549 10.55788 36972 ft 498 kts 347°
2026-05-05 22:51 0.71306 10.54145 36971 ft 499 kts 347°
2026-05-05 22:52 0.78065 10.52503 36977 ft 499 kts 347°
2026-05-05 22:52 0.84809 10.50864 36977 ft 499 kts 347°
2026-05-05 22:53 0.91519 10.49238 36979 ft 498 kts 347°
2026-05-05 22:53 0.98260 10.47603 36979 ft 499 kts 347°
2026-05-05 22:54 1.04985 10.45968 36980 ft 499 kts 347°
2026-05-05 22:54 1.11727 10.44331 36982 ft 499 kts 347°
2026-05-05 22:55 1.18485 10.42690 36981 ft 497 kts 347°
2026-05-05 22:55 1.25172 10.41067 36982 ft 497 kts 347°
2026-05-05 22:56 1.31910 10.39432 36982 ft 497 kts 347°
2026-05-05 22:56 1.38595 10.37810 36982 ft 497 kts 347°
2026-05-05 22:57 1.45313 10.36179 36982 ft 497 kts 347°
2026-05-05 22:57 1.52058 10.34541 36982 ft 497 kts 347°
2026-05-05 22:58 1.58749 10.32917 36983 ft 497 kts 347°
2026-05-05 22:58 1.65449 10.31290 36975 ft 497 kts 347°
2026-05-05 22:59 1.72185 10.29655 36975 ft 497 kts 347°
2026-05-05 22:59 1.78916 10.28021 36977 ft 497 kts 347°
2026-05-05 23:00 1.88950 10.25449 36967 ft 497 kts 346°
2026-05-05 23:00 1.95614 10.23665 36958 ft 498 kts 346°
2026-05-05 23:01 2.02299 10.21889 36958 ft 498 kts 346°
2026-05-05 23:01 2.09027 10.20115 36957 ft 498 kts 346°
2026-05-05 23:02 2.15701 10.18359 36955 ft 499 kts 346°
2026-05-05 23:02 2.22439 10.16585 36954 ft 499 kts 346°
2026-05-05 23:03 2.29129 10.14824 36948 ft 498 kts 346°
2026-05-05 23:03 2.35800 10.13067 36951 ft 498 kts 346°
2026-05-05 23:04 2.42500 10.11302 36935 ft 498 kts 346°
2026-05-05 23:04 2.49234 10.09528 36936 ft 498 kts 346°
2026-05-05 23:05 2.55895 10.07772 36934 ft 498 kts 346°
2026-05-05 23:05 2.62608 10.06004 36932 ft 498 kts 346°
2026-05-05 23:06 2.69310 10.04238 36932 ft 498 kts 346°
2026-05-05 23:06 2.75971 10.02482 36928 ft 497 kts 346°
2026-05-05 23:07 2.82676 10.00715 36928 ft 497 kts 346°
2026-05-05 23:07 2.89380 9.98948 36924 ft 497 kts 346°
2026-05-05 23:08 2.96053 9.97188 36916 ft 497 kts 346°
2026-05-05 23:08 3.02755 9.95421 36916 ft 497 kts 346°
2026-05-05 23:09 3.09426 9.93662 36917 ft 497 kts 346°
2026-05-05 23:09 3.16103 9.91901 36915 ft 497 kts 346°
2026-05-05 23:10 3.22767 9.90143 36915 ft 497 kts 346°
2026-05-05 23:10 3.29470 9.88375 36917 ft 497 kts 346°
2026-05-05 23:11 3.36131 9.86617 36914 ft 497 kts 346°
2026-05-05 23:11 3.42827 9.84850 36913 ft 497 kts 346°
2026-05-05 23:12 3.49472 9.83096 36909 ft 496 kts 346°
2026-05-05 23:12 3.56123 9.81340 36911 ft 495 kts 346°
2026-05-05 23:13 3.62804 9.79576 36913 ft 495 kts 346°
2026-05-05 23:13 3.69422 9.77829 36911 ft 494 kts 346°
2026-05-05 23:14 3.76111 9.76063 36910 ft 495 kts 346°
2026-05-05 23:14 3.82780 9.74302 36910 ft 496 kts 346°
2026-05-05 23:15 3.89430 9.72545 36911 ft 497 kts 346°
2026-05-05 23:15 3.96119 9.70778 36912 ft 497 kts 346°
2026-05-05 23:16 4.02773 9.69020 36911 ft 497 kts 346°
2026-05-05 23:16 4.09431 9.67260 36911 ft 496 kts 346°
2026-05-05 23:17 4.16107 9.65494 36913 ft 497 kts 346°
2026-05-05 23:17 4.22804 9.63724 36917 ft 497 kts 346°
2026-05-05 23:18 4.29498 9.61954 36916 ft 497 kts 346°
2026-05-05 23:18 4.36177 9.60188 36918 ft 497 kts 346°
2026-05-05 23:19 4.42857 9.58420 36918 ft 497 kts 346°
2026-05-05 23:19 4.49540 9.56652 36920 ft 497 kts 346°
2026-05-05 23:20 4.56226 9.55092 36930 ft 498 kts 349°
2026-05-05 23:20 4.63045 9.53688 36930 ft 499 kts 349°
2026-05-05 23:21 4.69850 9.52264 36940 ft 499 kts 349°
2026-05-05 23:21 4.76631 9.50806 36942 ft 499 kts 349°
2026-05-05 23:22 4.83410 9.49335 36950 ft 499 kts 349°
2026-05-05 23:22 4.90219 9.47855 36951 ft 500 kts 349°
2026-05-05 23:23 4.96999 9.46383 36954 ft 499 kts 349°
2026-05-05 23:23 5.03783 9.44910 36955 ft 499 kts 349°
2026-05-05 23:24 5.10538 9.43444 36957 ft 499 kts 349°
2026-05-05 23:24 5.17303 9.41975 36947 ft 499 kts 349°
2026-05-05 23:25 5.24094 9.40500 36947 ft 499 kts 349°
2026-05-05 23:25 5.30854 9.39031 36936 ft 499 kts 349°
2026-05-05 23:26 5.37664 9.37552 36931 ft 499 kts 349°
2026-05-05 23:26 5.44450 9.36077 36921 ft 499 kts 349°
2026-05-05 23:27 5.51209 9.34608 36919 ft 499 kts 349°
2026-05-05 23:27 5.58015 9.33128 36919 ft 499 kts 349°
2026-05-05 23:28 5.64760 9.31662 36914 ft 499 kts 348°
2026-05-05 23:28 5.71584 9.30330 36920 ft 499 kts 353°
2026-05-05 23:29 5.78471 9.29459 36919 ft 500 kts 354°
2026-05-05 23:29 5.85399 9.28658 36919 ft 500 kts 354°
2026-05-05 23:30 5.92289 9.27869 36921 ft 500 kts 354°
2026-05-05 23:30 5.99180 9.27073 36920 ft 499 kts 354°
2026-05-05 23:31 6.06069 9.26274 36923 ft 499 kts 354°
2026-05-05 23:31 6.12957 9.25473 36926 ft 499 kts 354°
2026-05-05 23:32 6.19869 9.24694 36927 ft 498 kts 355°
2026-05-05 23:32 6.26779 9.24232 36927 ft 498 kts 358°
2026-05-05 23:33 6.33683 9.23862 36916 ft 498 kts 357°
2026-05-05 23:33 6.40606 9.23447 36916 ft 498 kts 356°
2026-05-05 23:34 6.47528 9.22998 36909 ft 496 kts 356°
2026-05-05 23:34 6.54404 9.22542 36907 ft 496 kts 356°
2026-05-05 23:35 6.61276 9.22086 36899 ft 496 kts 356°
2026-05-05 23:35 6.68162 9.21632 36898 ft 496 kts 356°
2026-05-05 23:36 6.75020 9.21180 36902 ft 496 kts 356°
2026-05-05 23:36 6.81889 9.20727 36889 ft 496 kts 355°
2026-05-05 23:37 6.88782 9.20272 36891 ft 496 kts 355°
2026-05-05 23:37 6.95671 9.19817 36887 ft 496 kts 355°
2026-05-05 23:38 7.02541 9.19363 36888 ft 496 kts 355°
2026-05-05 23:38 7.09441 9.18907 36882 ft 496 kts 355°
2026-05-05 23:39 7.16265 9.18141 36879 ft 495 kts 351°
2026-05-05 23:39 7.23086 9.17105 36880 ft 495 kts 351°
2026-05-05 23:40 7.29883 9.16106 36882 ft 495 kts 351°
2026-05-05 23:40 7.36728 9.15157 36882 ft 496 kts 352°
2026-05-05 23:41 7.43551 9.14233 36882 ft 495 kts 352°
2026-05-05 23:41 7.50396 9.13308 36882 ft 495 kts 351°
2026-05-05 23:42 7.57182 9.12387 36881 ft 492 kts 351°
2026-05-05 23:42 7.63971 9.11464 36882 ft 492 kts 351°
2026-05-05 23:43 7.70741 9.10543 36873 ft 492 kts 351°
2026-05-05 23:43 7.77502 9.09624 36870 ft 492 kts 351°
2026-05-05 23:44 7.84285 9.08700 36878 ft 491 kts 351°
2026-05-05 23:44 7.89902 9.07935 36876 ft 489 kts 352°
2026-05-05 23:45 7.97736 9.06869 36876 ft 487 kts 352°
2026-05-05 23:45 8.04464 9.05953 36875 ft 488 kts 352°
2026-05-05 23:46 8.10053 9.05192 36881 ft 488 kts 352°
2026-05-05 23:46 8.16798 9.04348 36882 ft 488 kts 353°
2026-05-05 23:47 8.23510 9.03564 36886 ft 488 kts 353°
2026-05-05 23:47 8.30250 9.02767 36894 ft 489 kts 353°
2026-05-05 23:48 8.37040 9.01942 36889 ft 490 kts 352°
2026-05-05 23:48 8.43770 9.01120 36878 ft 490 kts 352°
2026-05-05 23:49 8.50531 9.00198 36875 ft 490 kts 351°
2026-05-05 23:49 8.57274 8.99228 36884 ft 490 kts 351°
2026-05-05 23:50 8.64035 8.98269 36896 ft 489 kts 352°
2026-05-05 23:50 8.70764 8.97329 36893 ft 487 kts 352°
2026-05-05 23:51 8.77482 8.96394 36905 ft 487 kts 352°
2026-05-05 23:51 8.84183 8.95461 36918 ft 487 kts 352°
2026-05-05 23:52 8.90860 8.94530 36921 ft 487 kts 352°
2026-05-05 23:52 8.97599 8.93590 36923 ft 487 kts 352°
2026-05-05 23:53 9.04276 8.92658 36946 ft 484 kts 352°
2026-05-05 23:53 9.10952 8.91727 36948 ft 482 kts 352°
2026-05-05 23:54 9.17575 8.90801 36964 ft 482 kts 352°
2026-05-05 23:54 9.24192 8.89877 36958 ft 482 kts 352°
2026-05-05 23:55 9.30861 8.88945 36973 ft 482 kts 352°
2026-05-05 23:55 9.37511 8.88016 36987 ft 482 kts 351°
2026-05-05 23:56 9.44118 8.87092 36991 ft 481 kts 351°
2026-05-05 23:56 9.50759 8.86162 36991 ft 481 kts 351°
2026-05-05 23:57 9.57394 8.85233 36985 ft 481 kts 351°
2026-05-05 23:57 9.64016 8.84306 36974 ft 481 kts 351°
2026-05-05 23:58 9.70648 8.83473 36971 ft 481 kts 352°
2026-05-05 23:58 9.77273 8.82759 36967 ft 479 kts 352°
2026-05-05 23:59 9.83873 8.82041 36975 ft 478 kts 352°
2026-05-05 23:59 9.90483 8.81298 36961 ft 478 kts 352°
2026-05-06 00:00 9.97067 8.80549 36959 ft 478 kts 352°
2026-05-06 00:00 10.03680 8.79796 36957 ft 478 kts 352°
2026-05-06 00:01 10.10306 8.79042 36952 ft 477 kts 352°
2026-05-06 00:01 10.16859 8.78297 36936 ft 473 kts 352°
2026-05-06 00:02 10.23377 8.77555 36940 ft 472 kts 352°
2026-05-06 00:02 10.29915 8.76810 36943 ft 472 kts 352°
2026-05-06 00:03 10.36422 8.76068 36930 ft 472 kts 352°
2026-05-06 00:03 10.42969 8.75322 36934 ft 472 kts 352°
2026-05-06 00:04 10.49473 8.74581 36929 ft 472 kts 352°
2026-05-06 00:04 10.56008 8.73835 36924 ft 471 kts 352°
2026-05-06 00:05 10.65772 8.72720 36918 ft 471 kts 352°
2026-05-06 00:06 10.72263 8.71979 36913 ft 471 kts 352°
2026-05-06 00:06 10.78791 8.71233 36903 ft 471 kts 352°
2026-05-06 00:07 10.85328 8.70486 36903 ft 471 kts 352°
2026-05-06 00:07 10.91810 8.69702 36890 ft 471 kts 349°
2026-05-06 00:08 10.98242 8.68553 36890 ft 470 kts 347°
2026-05-06 00:08 11.04677 8.67312 36897 ft 470 kts 347°
2026-05-06 00:09 11.11098 8.66125 36891 ft 470 kts 348°
2026-05-06 00:09 11.17563 8.64968 36903 ft 470 kts 348°
2026-05-06 00:10 11.23982 8.63829 36885 ft 469 kts 348°
2026-05-06 00:10 11.30399 8.62688 36885 ft 468 kts 348°
2026-05-06 00:11 11.36834 8.61541 36877 ft 469 kts 348°
2026-05-06 00:11 11.43274 8.60392 36878 ft 468 kts 348°
2026-05-06 00:12 11.49665 8.59251 36865 ft 468 kts 348°
2026-05-06 00:12 11.56112 8.58101 36868 ft 468 kts 348°
2026-05-06 00:13 11.62508 8.56958 36856 ft 467 kts 348°
2026-05-06 00:13 11.68884 8.55819 36851 ft 467 kts 348°
2026-05-06 00:14 11.75298 8.54672 36855 ft 467 kts 348°
2026-05-06 00:14 11.81674 8.53531 36844 ft 467 kts 348°
2026-05-06 00:15 11.88099 8.52382 36843 ft 467 kts 348°
2026-05-06 00:15 11.94454 8.51244 36839 ft 467 kts 347°
2026-05-06 00:16 12.00877 8.50094 36837 ft 466 kts 347°
2026-05-06 00:16 12.07256 8.49047 36837 ft 467 kts 351°
2026-05-06 00:17 12.13749 8.48450 36837 ft 468 kts 353°
2026-05-06 00:17 12.20242 8.47923 36836 ft 468 kts 352°
2026-05-06 00:18 12.26724 8.47331 36834 ft 468 kts 352°
2026-05-06 00:18 12.33188 8.46699 36833 ft 466 kts 351°
2026-05-06 00:19 12.39632 8.46058 36835 ft 466 kts 351°
2026-05-06 00:19 12.46088 8.45417 36834 ft 466 kts 351°
2026-05-06 00:20 12.52497 8.44784 36831 ft 466 kts 351°
2026-05-06 00:20 12.58971 8.44144 36831 ft 466 kts 351°
2026-05-06 00:21 12.65426 8.43506 36833 ft 466 kts 351°
2026-05-06 00:21 12.71846 8.42872 36831 ft 465 kts 351°
2026-05-06 00:22 12.78287 8.42234 36832 ft 465 kts 351°
2026-05-06 00:22 12.84697 8.41603 36829 ft 465 kts 351°
2026-05-06 00:23 12.91134 8.40961 36828 ft 465 kts 351°
2026-05-06 00:23 12.97581 8.40319 36829 ft 465 kts 351°
2026-05-06 00:24 13.04029 8.39678 36829 ft 464 kts 351°
2026-05-06 00:24 13.10426 8.39042 36826 ft 463 kts 351°
2026-05-06 00:25 13.16837 8.38439 36827 ft 463 kts 351°
2026-05-06 00:25 13.23231 8.37853 36826 ft 463 kts 351°
2026-05-06 00:26 13.29632 8.37261 36826 ft 463 kts 351°
2026-05-06 00:26 13.36041 8.36664 36842 ft 463 kts 351°
2026-05-06 00:27 13.42457 8.36065 36827 ft 460 kts 351°
2026-05-06 00:27 13.48793 8.35472 36826 ft 459 kts 351°
2026-05-06 00:28 13.55195 8.34872 36825 ft 459 kts 351°
2026-05-06 00:28 13.61520 8.34279 36818 ft 460 kts 351°
2026-05-06 00:29 13.67891 8.33682 36822 ft 461 kts 351°
2026-05-06 00:29 13.74300 8.33081 36822 ft 461 kts 350°
2026-05-06 00:30 13.80686 8.32483 36830 ft 461 kts 350°
2026-05-06 00:30 13.87028 8.31886 36821 ft 461 kts 350°
2026-05-06 00:31 13.93446 8.31281 36824 ft 461 kts 350°
2026-05-06 00:31 13.99795 8.30683 36822 ft 461 kts 350°
2026-05-06 00:32 14.06185 8.30081 36823 ft 461 kts 350°
2026-05-06 00:32 14.12564 8.29480 36821 ft 461 kts 350°
2026-05-06 00:33 14.18969 8.28875 36818 ft 461 kts 350°
2026-05-06 00:33 14.25326 8.28275 36812 ft 461 kts 350°
2026-05-06 00:34 14.31722 8.27671 36816 ft 461 kts 350°
2026-05-06 00:34 14.38109 8.27068 36816 ft 461 kts 350°
2026-05-06 00:35 14.44456 8.26468 36816 ft 461 kts 350°
2026-05-06 00:35 14.50871 8.25861 36812 ft 461 kts 350°
2026-05-06 00:36 14.57220 8.25260 36810 ft 461 kts 350°
2026-05-06 00:36 14.63628 8.24653 36810 ft 461 kts 350°
2026-05-06 00:37 14.70005 8.24048 36809 ft 461 kts 350°
2026-05-06 00:37 14.76362 8.23446 36812 ft 461 kts 350°
2026-05-06 00:38 14.82735 8.22841 36810 ft 460 kts 350°
2026-05-06 00:38 14.89124 8.22235 36811 ft 460 kts 350°
2026-05-06 00:39 14.95474 8.21631 36804 ft 460 kts 350°
2026-05-06 00:39 15.01859 8.21024 36807 ft 460 kts 350°
2026-05-06 00:40 15.08198 8.20422 36808 ft 460 kts 350°
2026-05-06 00:40 15.14588 8.19816 36822 ft 460 kts 350°
2026-05-06 00:41 15.20945 8.19214 36806 ft 460 kts 350°
2026-05-06 00:41 15.27297 8.18611 36809 ft 460 kts 350°
2026-05-06 00:42 15.33694 8.18004 36809 ft 460 kts 350°
2026-05-06 00:42 15.40042 8.17401 36817 ft 460 kts 350°
2026-05-06 00:43 15.46424 8.16795 36812 ft 460 kts 350°
2026-05-06 00:43 15.52813 8.16187 36819 ft 460 kts 350°
2026-05-06 00:44 15.59155 8.15584 36810 ft 460 kts 350°
2026-05-06 00:44 15.65548 8.14975 36817 ft 460 kts 350°
2026-05-06 00:45 15.71905 8.14369 36821 ft 460 kts 350°
2026-05-06 00:45 15.78285 8.13761 36817 ft 460 kts 350°
2026-05-06 00:46 15.84648 8.13154 36823 ft 460 kts 349°
2026-05-06 00:46 15.91003 8.12547 36821 ft 460 kts 349°
2026-05-06 00:47 15.97402 8.11936 36819 ft 461 kts 349°
2026-05-06 00:47 16.03792 8.11325 36811 ft 461 kts 349°
2026-05-06 00:48 16.10133 8.10719 36811 ft 461 kts 349°
2026-05-06 00:48 16.16541 8.10106 36809 ft 460 kts 349°
2026-05-06 00:49 16.22890 8.09498 36811 ft 460 kts 349°
2026-05-06 00:49 16.29264 8.08887 36810 ft 460 kts 349°
2026-05-06 00:50 16.35655 8.08274 36806 ft 460 kts 349°
2026-05-06 00:50 16.42010 8.07664 36810 ft 460 kts 349°
2026-05-06 00:51 16.48351 8.07055 36812 ft 460 kts 349°
2026-05-06 00:51 16.54742 8.06442 36820 ft 460 kts 349°
2026-05-06 00:52 16.61098 8.05831 36809 ft 460 kts 349°
2026-05-06 00:52 16.67478 8.05217 36809 ft 460 kts 349°
2026-05-06 00:53 16.73834 8.04605 36808 ft 460 kts 349°
2026-05-06 00:53 16.80205 8.03991 36806 ft 460 kts 349°
2026-05-06 00:54 16.86551 8.03379 36806 ft 460 kts 349°
2026-05-06 00:54 16.92893 8.02768 36814 ft 460 kts 349°
2026-05-06 00:55 16.99280 8.02155 36818 ft 460 kts 349°
2026-05-06 00:55 17.05673 8.01630 36818 ft 461 kts 350°
2026-05-06 00:56 17.12036 8.01141 36817 ft 461 kts 350°
2026-05-06 00:56 17.18441 8.00638 36827 ft 461 kts 350°
2026-05-06 00:57 17.24814 8.00127 36843 ft 461 kts 350°
2026-05-06 00:57 17.30138 7.99698 36822 ft 460 kts 350°
2026-05-06 00:58 17.36548 7.99180 36829 ft 460 kts 350°
2026-05-06 00:58 17.42916 7.98666 36826 ft 460 kts 350°
2026-05-06 00:59 17.49304 7.98150 36830 ft 460 kts 350°
2026-05-06 00:59 17.55658 7.97637 36833 ft 460 kts 350°
2026-05-06 01:00 17.62017 7.97123 36839 ft 460 kts 349°
2026-05-06 01:00 17.68403 7.96605 36826 ft 460 kts 350°
2026-05-06 01:01 17.74782 7.96088 36827 ft 461 kts 350°
2026-05-06 01:01 17.81199 7.95568 36826 ft 461 kts 350°
2026-05-06 01:02 17.87565 7.95053 36827 ft 461 kts 350°
2026-05-06 01:02 17.93949 7.94535 36828 ft 461 kts 350°
2026-05-06 01:03 18.00362 7.94014 36829 ft 461 kts 350°
2026-05-06 01:03 18.06732 7.93496 36814 ft 461 kts 350°
2026-05-06 01:04 18.13142 7.92975 36829 ft 461 kts 350°
2026-05-06 01:04 18.19519 7.92456 36823 ft 461 kts 350°
2026-05-06 01:05 18.25930 7.91934 36827 ft 461 kts 349°
2026-05-06 01:05 18.32332 7.91412 36827 ft 461 kts 349°
2026-05-06 01:06 18.38705 7.90892 36827 ft 461 kts 349°
2026-05-06 01:06 18.45125 7.90368 36819 ft 461 kts 349°
2026-05-06 01:07 18.51488 7.89848 36830 ft 461 kts 349°
2026-05-06 01:07 18.57894 7.89324 36800 ft 461 kts 349°
2026-05-06 01:08 18.64298 7.88800 36809 ft 461 kts 349°
2026-05-06 01:08 18.70677 7.88277 36810 ft 461 kts 349°
2026-05-06 01:09 18.77040 7.87756 36809 ft 461 kts 349°
2026-05-06 01:09 18.83448 7.87230 36809 ft 461 kts 349°
2026-05-06 01:10 18.89812 7.86708 36810 ft 461 kts 349°
2026-05-06 01:10 18.96202 7.86184 36824 ft 461 kts 349°
2026-05-06 01:11 19.02583 7.85660 36813 ft 460 kts 349°
2026-05-06 01:11 19.08971 7.85135 36812 ft 460 kts 349°
2026-05-06 01:12 19.15331 7.84612 36813 ft 460 kts 349°
2026-05-06 01:12 19.21710 7.84086 36815 ft 460 kts 349°
2026-05-06 01:13 19.28068 7.83561 36815 ft 460 kts 349°
2026-05-06 01:13 19.34430 7.83038 36815 ft 459 kts 349°
2026-05-06 01:14 19.43993 7.82248 36816 ft 459 kts 348°
2026-05-06 01:14 19.50327 7.81724 36814 ft 458 kts 348°
2026-05-06 01:15 19.56693 7.81211 36818 ft 458 kts 349°
2026-05-06 01:15 19.63031 7.80712 36836 ft 459 kts 349°
2026-05-06 01:16 19.69393 7.80209 36818 ft 459 kts 348°
2026-05-06 01:16 19.75752 7.79703 36821 ft 458 kts 348°
2026-05-06 01:17 19.82102 7.79197 36826 ft 458 kts 348°
2026-05-06 01:17 19.88482 7.78689 36825 ft 459 kts 348°
2026-05-06 01:18 19.94824 7.78182 36830 ft 459 kts 348°
2026-05-06 01:18 20.01193 7.77673 36827 ft 459 kts 348°
2026-05-06 01:19 20.07583 7.77163 36829 ft 459 kts 348°
2026-05-06 01:19 20.13921 7.76656 36828 ft 459 kts 348°
2026-05-06 01:20 20.20265 7.76149 36829 ft 459 kts 348°
2026-05-06 01:20 20.26642 7.75638 36832 ft 459 kts 348°
2026-05-06 01:21 20.33013 7.75127 36830 ft 459 kts 348°
2026-05-06 01:21 20.39365 7.74617 36826 ft 459 kts 348°
2026-05-06 01:22 20.45745 7.74105 36819 ft 459 kts 348°
2026-05-06 01:22 20.52123 7.73592 36819 ft 459 kts 348°
2026-05-06 01:23 20.58458 7.73082 36817 ft 459 kts 348°
2026-05-06 01:23 20.64853 7.72568 36825 ft 459 kts 348°
2026-05-06 01:24 20.71199 7.72056 36819 ft 460 kts 348°
2026-05-06 01:24 20.77599 7.71540 36821 ft 460 kts 348°
2026-05-06 01:25 20.83969 7.71027 36820 ft 460 kts 348°
2026-05-06 01:25 20.90344 7.70512 36822 ft 460 kts 348°
2026-05-06 01:26 20.96704 7.69998 36850 ft 460 kts 348°
2026-05-06 01:26 21.03015 7.69273 36822 ft 456 kts 345°
2026-05-06 01:27 21.09278 7.68316 36822 ft 456 kts 345°
2026-05-06 01:27 21.15586 7.67369 36824 ft 456 kts 345°
2026-05-06 01:28 21.21857 7.66475 36824 ft 456 kts 345°
2026-05-06 01:28 21.28173 7.65591 36824 ft 457 kts 345°
2026-05-06 01:29 21.34455 7.64715 36826 ft 456 kts 345°
2026-05-06 01:29 21.40733 7.63836 36831 ft 456 kts 345°
2026-05-06 01:30 21.47036 7.62950 36828 ft 456 kts 345°
2026-05-06 01:30 21.53315 7.62067 36824 ft 457 kts 345°
2026-05-06 01:31 21.59642 7.61177 36825 ft 456 kts 345°
2026-05-06 01:31 21.65912 7.60295 36826 ft 456 kts 346°
2026-05-06 01:32 21.72214 7.59407 36825 ft 456 kts 346°
2026-05-06 01:32 21.78519 7.58517 36826 ft 457 kts 345°
2026-05-06 01:33 21.84806 7.57628 36836 ft 459 kts 345°
2026-05-06 01:33 21.91117 7.56736 36826 ft 459 kts 345°
2026-05-06 01:34 21.97450 7.55841 36843 ft 459 kts 346°
2026-05-06 01:34 22.03783 7.54945 36843 ft 459 kts 346°
2026-05-06 01:35 22.10106 7.54050 36841 ft 459 kts 346°
2026-05-06 01:35 22.16451 7.53151 36855 ft 459 kts 346°
2026-05-06 01:36 22.22817 7.52247 36855 ft 459 kts 346°
2026-05-06 01:36 22.29116 7.51352 36874 ft 460 kts 346°
2026-05-06 01:37 22.35463 7.50450 36859 ft 460 kts 346°
2026-05-06 01:37 22.41818 7.49545 36873 ft 460 kts 346°
2026-05-06 01:38 22.48126 7.48647 36868 ft 460 kts 346°
2026-05-06 01:38 22.54492 7.47739 36883 ft 460 kts 346°
2026-05-06 01:39 22.60810 7.46837 36879 ft 460 kts 346°
2026-05-06 01:39 22.67187 7.45926 36883 ft 461 kts 345°
2026-05-06 01:40 22.73523 7.45020 36886 ft 462 kts 345°
2026-05-06 01:40 22.79907 7.44107 36886 ft 462 kts 345°
2026-05-06 01:41 22.86243 7.43200 36896 ft 462 kts 345°
2026-05-06 01:41 22.92622 7.42285 36895 ft 462 kts 345°
2026-05-06 01:42 22.98971 7.41373 36899 ft 463 kts 345°
2026-05-06 01:42 23.05381 7.40452 36902 ft 464 kts 345°
2026-05-06 01:43 23.11791 7.39531 36903 ft 464 kts 345°
2026-05-06 01:43 23.18179 7.38612 36895 ft 464 kts 345°
2026-05-06 01:44 23.24549 7.37694 36912 ft 464 kts 345°
2026-05-06 01:44 23.30973 7.36768 36917 ft 465 kts 345°
2026-05-06 01:45 23.37369 7.35844 36910 ft 465 kts 345°
2026-05-06 01:45 23.43806 7.34915 36916 ft 465 kts 345°
2026-05-06 01:46 23.50232 7.33985 36925 ft 466 kts 345°
2026-05-06 01:46 23.56653 7.33174 36918 ft 468 kts 347°
2026-05-06 01:47 23.63162 7.32538 36931 ft 470 kts 347°
2026-05-06 01:47 23.69662 7.31898 36931 ft 471 kts 347°
2026-05-06 01:48 23.76206 7.31221 36935 ft 470 kts 347°
2026-05-06 01:48 23.82700 7.30535 36935 ft 470 kts 347°
2026-05-06 01:49 23.89221 7.29843 36941 ft 470 kts 347°
2026-05-06 01:49 23.95700 7.29155 36948 ft 470 kts 347°
2026-05-06 01:50 24.02226 7.28462 36949 ft 470 kts 347°
2026-05-06 01:50 24.08700 7.27774 36945 ft 470 kts 347°
2026-05-06 01:51 24.14489 7.27158 36947 ft 470 kts 347°
2026-05-06 01:51 24.20979 7.26467 36951 ft 470 kts 347°
2026-05-06 01:52 24.27491 7.25774 36942 ft 471 kts 347°
2026-05-06 01:52 24.34019 7.25078 36948 ft 471 kts 347°
2026-05-06 01:53 24.40514 7.24385 36941 ft 471 kts 347°
2026-05-06 01:53 24.47047 7.23687 36944 ft 471 kts 347°
2026-05-06 01:54 24.53540 7.22992 36945 ft 471 kts 347°
2026-05-06 01:54 24.60048 7.22294 36948 ft 471 kts 347°
2026-05-06 01:55 24.66577 7.21594 36943 ft 471 kts 347°
2026-05-06 01:55 24.73094 7.20895 36950 ft 471 kts 347°
2026-05-06 01:56 24.79595 7.20197 36946 ft 471 kts 347°
2026-05-06 01:56 24.86096 7.19498 36959 ft 470 kts 347°
2026-05-06 01:57 24.92609 7.18798 36952 ft 468 kts 347°
2026-05-06 01:57 24.99065 7.18104 36954 ft 468 kts 347°
2026-05-06 01:58 25.05558 7.17405 36956 ft 468 kts 347°
2026-05-06 01:58 25.12014 7.16711 36958 ft 468 kts 347°
2026-05-06 01:59 25.18508 7.16011 36966 ft 468 kts 346°
2026-05-06 01:59 25.25019 7.15307 36962 ft 470 kts 346°
2026-05-06 02:00 25.31522 7.14605 36968 ft 471 kts 346°
2026-05-06 02:00 25.38002 7.13906 36956 ft 470 kts 346°
2026-05-06 02:01 25.44530 7.13200 36949 ft 470 kts 346°
2026-05-06 02:01 25.51064 7.12493 36954 ft 471 kts 346°
2026-05-06 02:02 25.57553 7.11789 36951 ft 471 kts 346°
2026-05-06 02:02 25.64109 7.11077 36946 ft 471 kts 346°
2026-05-06 02:03 25.70604 7.10372 36950 ft 471 kts 346°
2026-05-06 02:03 25.77145 7.09660 36942 ft 471 kts 346°
2026-05-06 02:04 25.83652 7.08951 36938 ft 472 kts 346°
2026-05-06 02:04 25.90203 7.08237 36921 ft 472 kts 346°
2026-05-06 02:05 25.96720 7.07527 36914 ft 472 kts 346°
2026-05-06 02:05 26.03247 7.06816 36924 ft 471 kts 346°
2026-05-06 02:06 26.09767 7.06115 36903 ft 472 kts 346°
2026-05-06 02:06 26.16294 7.05417 36914 ft 473 kts 346°
2026-05-06 02:07 26.22860 7.04716 36882 ft 472 kts 346°
2026-05-06 02:07 26.29384 7.04019 36884 ft 472 kts 346°
2026-05-06 02:08 26.35921 7.03316 36866 ft 473 kts 346°
2026-05-06 02:08 26.42476 7.02609 36876 ft 473 kts 346°
2026-05-06 02:09 26.48995 7.01907 36856 ft 472 kts 346°
2026-05-06 02:09 26.55555 7.01199 36860 ft 473 kts 347°
2026-05-06 02:10 26.62107 7.00490 36856 ft 473 kts 346°
2026-05-06 02:10 26.68644 6.99784 36836 ft 473 kts 346°
2026-05-06 02:11 26.75205 6.99095 36855 ft 473 kts 346°
2026-05-06 02:11 26.81725 6.98382 36845 ft 472 kts 346°
2026-05-06 02:12 26.88293 6.97659 36831 ft 472 kts 346°
2026-05-06 02:12 26.94814 6.96950 36839 ft 472 kts 346°
2026-05-06 02:13 27.01317 6.96238 36854 ft 472 kts 346°
2026-05-06 02:13 27.07877 6.95521 36824 ft 472 kts 346°
2026-05-06 02:14 27.14421 6.94807 36828 ft 472 kts 346°
2026-05-06 02:14 27.20928 6.94097 36821 ft 471 kts 346°
2026-05-06 02:15 27.27430 6.93386 36824 ft 471 kts 346°
2026-05-06 02:15 27.33970 6.92670 36811 ft 471 kts 346°
2026-05-06 02:16 27.40471 6.91958 36820 ft 472 kts 346°
2026-05-06 02:16 27.47013 6.91240 36808 ft 471 kts 346°
2026-05-06 02:17 27.53555 6.90522 36809 ft 471 kts 346°
2026-05-06 02:17 27.60054 6.89808 36801 ft 471 kts 346°
2026-05-06 02:18 27.66604 6.89087 36801 ft 471 kts 346°
2026-05-06 02:18 27.73092 6.88371 36798 ft 471 kts 346°
2026-05-06 02:19 27.79637 6.87648 36802 ft 471 kts 346°
2026-05-06 02:19 27.86175 6.86926 36799 ft 471 kts 346°
2026-05-06 02:20 27.95926 6.85847 36802 ft 471 kts 346°
2026-05-06 02:21 28.02475 6.85120 36796 ft 471 kts 346°
2026-05-06 02:21 28.08958 6.84402 36797 ft 471 kts 346°
2026-05-06 02:22 28.15545 6.83917 36793 ft 477 kts 350°
2026-05-06 02:22 28.22175 6.83800 36802 ft 478 kts 351°
2026-05-06 02:23 28.28839 6.83741 36785 ft 477 kts 351°
2026-05-06 02:23 28.35472 6.83685 36786 ft 477 kts 351°
2026-05-06 02:24 28.42094 6.83620 36782 ft 477 kts 351°
2026-05-06 02:24 28.48748 6.83551 36782 ft 477 kts 351°
2026-05-06 02:25 28.55359 6.83482 36775 ft 477 kts 351°
2026-05-06 02:25 28.61991 6.83413 36773 ft 477 kts 351°
2026-05-06 02:26 28.68607 6.83343 36774 ft 477 kts 351°
2026-05-06 02:26 28.75245 6.83273 36766 ft 477 kts 351°
2026-05-06 02:27 28.81892 6.83205 36768 ft 477 kts 350°
2026-05-06 02:27 28.88525 6.83136 36763 ft 477 kts 351°
2026-05-06 02:28 28.95112 6.83068 36760 ft 477 kts 351°
2026-05-06 02:28 29.01741 6.82997 36758 ft 477 kts 351°
2026-05-06 02:29 29.08371 6.82928 36788 ft 477 kts 350°
2026-05-06 02:29 29.15005 6.82860 36768 ft 476 kts 350°
2026-05-06 02:30 29.21643 6.82782 36581 ft 481 kts 354°
2026-05-06 02:30 29.28325 6.82715 36735 ft 480 kts 351°
2026-05-06 02:31 29.34964 6.82653 36743 ft 476 kts 351°
2026-05-06 02:31 29.41610 6.82582 36742 ft 475 kts 350°
2026-05-06 02:32 29.48224 6.82509 36735 ft 475 kts 350°
2026-05-06 02:32 29.54790 6.82438 36729 ft 475 kts 350°
2026-05-06 02:33 29.61422 6.82367 36730 ft 475 kts 350°
2026-05-06 02:33 29.63635 6.82344 36729 ft 475 kts 350°
2026-05-06 02:34 29.74641 6.82230 36727 ft 474 kts 350°
2026-05-06 02:34 29.81188 6.82160 36719 ft 474 kts 350°
2026-05-06 02:35 29.87784 6.82088 36721 ft 474 kts 350°
2026-05-06 02:35 29.94384 6.82017 36755 ft 474 kts 350°
2026-05-06 02:36 30.00941 6.81948 36718 ft 473 kts 350°
2026-05-06 02:36 30.07551 6.81877 36718 ft 473 kts 350°
2026-05-06 02:37 30.14099 6.81807 36716 ft 473 kts 350°
2026-05-06 02:37 30.20680 6.81735 36714 ft 473 kts 350°
2026-05-06 02:38 30.27244 6.81665 36704 ft 473 kts 349°
2026-05-06 02:38 30.33834 6.81595 36700 ft 473 kts 349°
2026-05-06 02:39 30.40408 6.81524 36707 ft 473 kts 349°
2026-05-06 02:39 30.46954 6.81452 36701 ft 473 kts 349°
2026-05-06 02:40 30.53542 6.81381 36700 ft 473 kts 349°
2026-05-06 02:40 30.60122 6.81311 36699 ft 473 kts 349°
2026-05-06 02:41 30.66689 6.81240 36698 ft 473 kts 349°
2026-05-06 02:41 30.73255 6.81168 36697 ft 473 kts 349°
2026-05-06 02:42 30.79844 6.81097 36718 ft 473 kts 349°
2026-05-06 02:42 30.86396 6.81026 36699 ft 473 kts 349°
2026-05-06 02:43 30.92956 6.80955 36696 ft 473 kts 349°
2026-05-06 02:43 30.99548 6.80882 36696 ft 472 kts 349°
2026-05-06 02:44 31.06134 6.80811 36698 ft 472 kts 349°
2026-05-06 02:44 31.12669 6.80739 36699 ft 473 kts 349°
2026-05-06 02:45 31.19243 6.80667 36696 ft 473 kts 349°
2026-05-06 02:45 31.25844 6.80594 36697 ft 473 kts 349°
2026-05-06 02:46 31.32405 6.80523 36693 ft 473 kts 349°
2026-05-06 02:46 31.39010 6.80451 36697 ft 473 kts 349°
2026-05-06 02:47 31.45571 6.80378 36693 ft 473 kts 349°
2026-05-06 02:47 31.52120 6.80306 36698 ft 473 kts 349°
2026-05-06 02:48 31.58717 6.80233 36696 ft 473 kts 349°
2026-05-06 02:48 31.65259 6.80161 36700 ft 472 kts 349°
2026-05-06 02:49 31.71854 6.80089 36706 ft 472 kts 349°
2026-05-06 02:49 31.78392 6.80016 36704 ft 472 kts 349°
2026-05-06 02:50 31.84952 6.79943 36708 ft 471 kts 349°
2026-05-06 02:50 31.91488 6.79870 36721 ft 471 kts 349°
2026-05-06 02:51 31.98059 6.79797 36707 ft 471 kts 349°
2026-05-06 02:51 32.04592 6.79724 36713 ft 471 kts 349°
2026-05-06 02:52 32.11161 6.79650 36720 ft 471 kts 349°
2026-05-06 02:52 32.17684 6.79577 36731 ft 471 kts 349°
2026-05-06 02:53 32.23177 6.79515 36729 ft 472 kts 349°
2026-05-06 02:53 32.29707 6.79442 36725 ft 472 kts 349°
2026-05-06 02:54 32.36259 6.79368 36720 ft 472 kts 349°
2026-05-06 02:54 32.42843 6.79294 36723 ft 472 kts 349°
2026-05-06 02:55 32.49420 6.79220 36735 ft 472 kts 349°
2026-05-06 02:55 32.55964 6.79146 36724 ft 473 kts 349°
2026-05-06 02:56 32.62539 6.79072 36742 ft 473 kts 349°
2026-05-06 02:56 32.69112 6.78998 36741 ft 473 kts 349°
2026-05-06 02:57 32.75692 6.78924 36745 ft 473 kts 349°
2026-05-06 02:57 32.82253 6.78849 36749 ft 473 kts 349°
2026-05-06 02:58 32.88831 6.78774 36751 ft 473 kts 349°
2026-05-06 02:58 32.95420 6.78699 36751 ft 473 kts 349°
2026-05-06 02:59 33.02003 6.78625 36762 ft 473 kts 348°
2026-05-06 02:59 33.08558 6.78550 36766 ft 473 kts 348°
2026-05-06 03:00 33.15133 6.78474 36764 ft 473 kts 348°
2026-05-06 03:00 33.21692 6.78399 36765 ft 473 kts 348°
2026-05-06 03:01 33.28264 6.78324 36758 ft 473 kts 348°
2026-05-06 03:01 33.34863 6.78249 36750 ft 473 kts 348°
2026-05-06 03:02 33.41412 6.78174 36745 ft 473 kts 348°
2026-05-06 03:02 33.48023 6.78097 36747 ft 473 kts 348°
2026-05-06 03:03 33.54562 6.77971 36748 ft 470 kts 347°
2026-05-06 03:03 33.61089 6.77557 36747 ft 468 kts 346°
2026-05-06 03:04 33.67586 6.77090 36753 ft 468 kts 346°
2026-05-06 03:04 33.74069 6.76664 36759 ft 469 kts 346°
2026-05-06 03:05 33.80599 6.76263 36772 ft 469 kts 346°
2026-05-06 03:05 33.87126 6.75868 36775 ft 469 kts 346°
2026-05-06 03:06 33.93603 6.75474 36774 ft 469 kts 346°
2026-05-06 03:06 34.00125 6.75076 36775 ft 469 kts 346°
2026-05-06 03:07 34.06640 6.74677 36781 ft 469 kts 346°
2026-05-06 03:07 34.13149 6.74277 36775 ft 469 kts 346°
2026-05-06 03:08 34.19650 6.73878 36771 ft 469 kts 346°
2026-05-06 03:08 34.26180 6.73476 36773 ft 469 kts 346°
2026-05-06 03:09 34.32716 6.73074 36777 ft 469 kts 346°
2026-05-06 03:09 34.39235 6.72671 36773 ft 469 kts 346°
2026-05-06 03:10 34.45727 6.72269 36778 ft 469 kts 346°
2026-05-06 03:10 34.52244 6.71866 36780 ft 469 kts 346°
2026-05-06 03:11 34.58767 6.71462 36796 ft 469 kts 346°
2026-05-06 03:11 34.65287 6.71058 36794 ft 468 kts 346°
2026-05-06 03:12 34.71769 6.70654 36811 ft 468 kts 346°
2026-05-06 03:12 34.78255 6.70249 36833 ft 468 kts 346°
2026-05-06 03:13 34.84768 6.69847 36842 ft 470 kts 346°
2026-05-06 03:13 34.91328 6.69439 36861 ft 473 kts 346°
2026-05-06 03:14 34.97871 6.69038 36883 ft 473 kts 346°
2026-05-06 03:14 35.04460 6.68636 36888 ft 474 kts 346°
2026-05-06 03:15 35.11047 6.68228 36918 ft 476 kts 347°
2026-05-06 03:15 35.17664 6.67824 36935 ft 479 kts 347°
2026-05-06 03:16 35.24300 6.67417 36933 ft 479 kts 347°
2026-05-06 03:16 35.30947 6.67004 36940 ft 479 kts 347°
2026-05-06 03:17 35.37602 6.66590 36941 ft 477 kts 347°
2026-05-06 03:17 35.44240 6.66179 36942 ft 476 kts 347°
2026-05-06 03:18 35.50834 6.65769 36954 ft 476 kts 347°
2026-05-06 03:18 35.57449 6.65356 36981 ft 476 kts 347°
2026-05-06 03:19 35.64086 6.64937 36949 ft 480 kts 348°
2026-05-06 03:19 35.70750 6.64519 36951 ft 482 kts 348°
2026-05-06 03:20 35.80797 6.63894 36956 ft 482 kts 348°
2026-05-06 03:20 35.87484 6.63475 36954 ft 482 kts 348°
2026-05-06 03:21 35.94186 6.63054 36953 ft 482 kts 348°
2026-05-06 03:21 36.00866 6.62634 36955 ft 482 kts 348°
2026-05-06 03:22 36.07569 6.62210 36973 ft 482 kts 348°
2026-05-06 03:22 36.14291 6.61784 36962 ft 483 kts 348°
2026-05-06 03:23 36.20988 6.61360 36967 ft 483 kts 348°
2026-05-06 03:23 36.27720 6.60966 36968 ft 487 kts 351°
2026-05-06 03:24 36.34514 6.61594 36973 ft 495 kts 358°
2026-05-06 03:24 36.41395 6.62611 36964 ft 495 kts 359°
2026-05-06 03:25 36.48220 6.63678 36961 ft 495 kts 359°
2026-05-06 03:25 36.55032 6.64732 36958 ft 495 kts 359°
2026-05-06 03:26 36.61886 6.65782 36951 ft 495 kts 359°
2026-05-06 03:26 36.68694 6.66822 36945 ft 494 kts 359°
2026-05-06 03:27 36.75523 6.67869 36951 ft 495 kts 359°
2026-05-06 03:27 36.82365 6.68918 36949 ft 495 kts 360°
2026-05-06 03:28 36.89168 6.69962 36932 ft 496 kts 360°
2026-05-06 03:28 36.96026 6.71016 36924 ft 495 kts 360°
2026-05-06 03:29 37.02846 6.72069 36931 ft 496 kts 360°
2026-05-06 03:29 37.09689 6.73124 36933 ft 496 kts 360°
2026-05-06 03:30 37.16528 6.74183 36936 ft 496 kts 360°
2026-05-06 03:30 37.23407 6.75250 36929 ft 496 kts 360°
2026-05-06 03:31 37.30259 6.76314 36954 ft 496 kts 360°
2026-05-06 03:31 37.37100 6.77379 36939 ft 497 kts 360°
2026-05-06 03:32 37.43967 6.78450 36935 ft 497 kts 360°
2026-05-06 03:32 37.50794 6.79517 36935 ft 497 kts
2026-05-06 03:33 37.57655 6.80590 36939 ft 498 kts
2026-05-06 03:33 37.64562 6.81672 36940 ft 499 kts
2026-05-06 03:34 37.71416 6.82749 36944 ft 499 kts
2026-05-06 03:34 37.78308 6.83834 36947 ft 500 kts
2026-05-06 03:35 37.85211 6.84919 36941 ft 501 kts
2026-05-06 03:35 37.92132 6.86015 36947 ft 500 kts
2026-05-06 03:36 37.98997 6.87103 36941 ft 499 kts
2026-05-06 03:36 38.05930 6.88201 36947 ft 502 kts
2026-05-06 03:37 38.12844 6.89299 36944 ft 503 kts
2026-05-06 03:37 38.19765 6.90402 36954 ft 502 kts
2026-05-06 03:38 38.26725 6.91512 36952 ft 502 kts
2026-05-06 03:38 38.33650 6.92619 36946 ft 502 kts
2026-05-06 03:39 38.40553 6.93724 36954 ft 503 kts
2026-05-06 03:39 38.47527 6.94841 36952 ft 503 kts
2026-05-06 03:40 38.54457 6.95954 36956 ft 505 kts
2026-05-06 03:40 38.61456 6.97082 36953 ft 505 kts
2026-05-06 03:41 38.68386 6.98201 36957 ft 505 kts
2026-05-06 03:41 38.75385 6.99333 36954 ft 505 kts
2026-05-06 03:42 38.82334 7.00459 36951 ft 506 kts
2026-05-06 03:42 38.89333 7.01595 36954 ft 506 kts
2026-05-06 03:43 38.96283 7.02724 36959 ft 506 kts
2026-05-06 03:43 39.03293 7.03838 36953 ft 506 kts
2026-05-06 03:44 39.10291 7.04669 36952 ft 505 kts
2026-05-06 03:44 39.17268 7.05429 36954 ft 505 kts
2026-05-06 03:45 39.24288 7.06237 36952 ft 506 kts
2026-05-06 03:45 39.31270 7.07072 36950 ft 506 kts
2026-05-06 03:46 39.38285 7.07920 36955 ft 506 kts
2026-05-06 03:46 39.45295 7.08768 36943 ft 506 kts
2026-05-06 03:47 39.52293 7.09615 36944 ft 507 kts
2026-05-06 03:47 39.59302 7.10465 36952 ft 507 kts
2026-05-06 03:48 39.66334 7.11319 36942 ft 506 kts
2026-05-06 03:48 39.73352 7.12173 36941 ft 506 kts
2026-05-06 03:49 39.80360 7.13028 36938 ft 506 kts
2026-05-06 03:49 39.87326 7.13879 36941 ft 505 kts
2026-05-06 03:50 39.94318 7.14736 36938 ft 505 kts
2026-05-06 03:50 40.01312 7.15593 36933 ft 505 kts
2026-05-06 03:51 40.08328 7.16456 36936 ft 505 kts
2026-05-06 03:51 40.15330 7.17318 36922 ft 506 kts
2026-05-06 03:52 40.22304 7.18193 36927 ft 506 kts
2026-05-06 03:52 40.29316 7.19152 36929 ft 508 kts
2026-05-06 03:53 40.36373 7.20131 36925 ft 509 kts
2026-05-06 03:53 40.43410 7.21099 36922 ft 509 kts
2026-05-06 03:54 40.50409 7.22057 36922 ft 509 kts
2026-05-06 03:54 40.57461 7.23023 36920 ft 509 kts
2026-05-06 03:55 40.64518 7.23991 36920 ft 509 kts
2026-05-06 03:55 40.71575 7.24961 36921 ft 510 kts
2026-05-06 03:56 40.78603 7.25930 36913 ft 510 kts
2026-05-06 03:56 40.85670 7.26906 36914 ft 511 kts
2026-05-06 03:57 40.92751 7.27887 36923 ft 511 kts
2026-05-06 03:57 40.99793 7.28863 36908 ft 512 kts
2026-05-06 03:58 41.06896 7.29850 36906 ft 512 kts
2026-05-06 03:58 41.13949 7.30834 36910 ft 513 kts
2026-05-06 03:59 41.21053 7.31825 36900 ft 513 kts
2026-05-06 03:59 41.28149 7.32818 36900 ft 514 kts
2026-05-06 04:00 41.35281 7.33819 36909 ft 514 kts
2026-05-06 04:00 41.42389 7.34818 36896 ft 515 kts
2026-05-06 04:01 41.49492 7.35818 36894 ft 515 kts
2026-05-06 04:01 41.56648 7.36829 36891 ft 516 kts
2026-05-06 04:02 41.63762 7.37835 36885 ft 518 kts
2026-05-06 04:02 41.70936 7.38853 36891 ft 518 kts
2026-05-06 04:03 41.76914 7.39703 36902 ft 518 kts
2026-05-06 04:03 41.85281 7.40894 36880 ft 520 kts
2026-05-06 04:04 41.91291 7.41752 36881 ft 520 kts
2026-05-06 04:04 41.98480 7.42781 36887 ft 520 kts
2026-05-06 04:05 42.05668 7.43811 36874 ft 521 kts
2026-05-06 04:05 42.12856 7.44844 36874 ft 521 kts
2026-05-06 04:06 42.20067 7.45883 36875 ft 521 kts
2026-05-06 04:06 42.27269 7.46923 36870 ft 521 kts
2026-05-06 04:07 42.34488 7.47967 36870 ft 521 kts
2026-05-06 04:07 42.41664 7.49008 36868 ft 521 kts
2026-05-06 04:08 42.48888 7.50058 36861 ft 521 kts
2026-05-06 04:08 42.56096 7.51108 36862 ft 521 kts
2026-05-06 04:09 42.63298 7.52160 36856 ft 521 kts
2026-05-06 04:09 42.70498 7.53214 36857 ft 521 kts
2026-05-06 04:10 42.77733 7.54275 36871 ft 521 kts
2026-05-06 04:10 42.84934 7.55334 36855 ft 522 kts
2026-05-06 04:11 42.92142 7.56397 36857 ft 522 kts
2026-05-06 04:11 42.99351 7.57462 36876 ft 522 kts
2026-05-06 04:12 43.06581 7.58532 36860 ft 523 kts
2026-05-06 04:12 43.13794 7.59661 36849 ft 524 kts
2026-05-06 04:13 43.21031 7.61315 36859 ft 526 kts
2026-05-06 04:13 43.28248 7.63095 36857 ft 527 kts
2026-05-06 04:14 43.35430 7.64797 36868 ft 527 kts
2026-05-06 04:14 43.42699 7.66471 36861 ft 527 kts
2026-05-06 04:15 43.49918 7.68123 36869 ft 528 kts
2026-05-06 04:15 43.57170 7.69789 36878 ft 528 kts
2026-05-06 04:16 43.64377 7.71451 36864 ft 529 kts
2026-05-06 04:16 43.71652 7.73134 36872 ft 529 kts
2026-05-06 04:17 43.78872 7.75062 36879 ft 534 kts 12°
2026-05-06 04:17 43.82388 7.76915 36879 ft 539 kts 23°
2026-05-06 04:17 43.85616 7.79555 36883 ft 543 kts 33°
2026-05-06 04:18 43.91711 7.85787 36882 ft 544 kts 37°
2026-05-06 04:18 43.98191 7.90987 36880 ft 537 kts 20°
2026-05-06 04:19 44.05122 7.94753 36867 ft 534 kts 17°
2026-05-06 04:19 44.12066 7.98208 36860 ft 533 kts 16°
2026-05-06 04:20 44.19056 8.01658 36879 ft 533 kts 16°
2026-05-06 04:20 44.26045 8.05148 36881 ft 533 kts 16°
2026-05-06 04:21 44.33018 8.08662 36897 ft 532 kts 17°
2026-05-06 04:21 44.39979 8.12184 36873 ft 533 kts 17°
2026-05-06 04:22 44.46926 8.15708 36882 ft 534 kts 17°
2026-05-06 04:23 44.57379 8.21023 36875 ft 533 kts 17°
2026-05-06 04:23 44.64375 8.24591 36875 ft 534 kts 17°
2026-05-06 04:24 44.71362 8.28165 36875 ft 534 kts 17°
2026-05-06 04:24 44.78327 8.31738 36874 ft 533 kts 17°
2026-05-06 04:25 44.85267 8.35305 36871 ft 533 kts 17°
2026-05-06 04:25 44.92211 8.38884 36874 ft 532 kts 17°
2026-05-06 04:26 44.99164 8.42477 36877 ft 531 kts 17°
2026-05-06 04:26 45.06096 8.46070 36881 ft 532 kts 17°
2026-05-06 04:27 45.13104 8.49708 36904 ft 533 kts 17°
2026-05-06 04:27 45.20041 8.53320 36923 ft 533 kts 17°
2026-05-06 04:28 45.26964 8.56934 36948 ft 533 kts 17°
2026-05-06 04:28 45.33921 8.60577 36939 ft 531 kts 17°
2026-05-06 04:29 45.40859 8.64219 36939 ft 531 kts 17°
2026-05-06 04:29 45.47747 8.67843 36887 ft 530 kts 18°
2026-05-06 04:30 45.54678 8.71501 36884 ft 529 kts 18°
2026-05-06 04:30 45.61586 8.75155 36897 ft 529 kts 18°
2026-05-06 04:31 45.68472 8.78808 36894 ft 529 kts 18°
2026-05-06 04:31 45.75372 8.82477 36904 ft 530 kts 18°
2026-05-06 04:32 45.82248 8.86143 36905 ft 530 kts 18°
2026-05-06 04:32 45.89153 8.89835 36913 ft 531 kts 18°
2026-05-06 04:33 45.96080 8.93548 36908 ft 531 kts 18°
2026-05-06 04:33 46.03014 8.97277 36926 ft 531 kts 18°
2026-05-06 04:34 46.09884 9.00978 36919 ft 530 kts 18°
2026-05-06 04:34 46.16987 9.03748 36922 ft 523 kts
2026-05-06 04:35 46.24197 9.04006 36915 ft 518 kts 355°
2026-05-06 04:35 46.31379 9.03717 36912 ft 517 kts 354°
2026-05-06 04:36 46.38550 9.03345 36917 ft 517 kts 354°
2026-05-06 04:36 46.45720 9.02998 36901 ft 516 kts 354°
2026-05-06 04:37 46.52916 9.02680 36904 ft 516 kts 354°
2026-05-06 04:37 46.60073 9.02373 36911 ft 517 kts 354°
2026-05-06 04:38 46.67276 9.02061 36900 ft 516 kts 354°
2026-05-06 04:38 46.74449 9.01748 36890 ft 516 kts 354°
2026-05-06 04:39 46.81103 9.01454 36887 ft 516 kts 354°
2026-05-06 04:39 46.85569 9.01256 36890 ft 516 kts 354°
2026-05-06 04:40 46.92747 9.00939 36871 ft 517 kts 354°
2026-05-06 04:40 46.99950 9.00620 36871 ft 517 kts 354°
2026-05-06 04:41 47.07095 9.00304 36863 ft 516 kts 355°
2026-05-06 04:41 47.14273 8.99985 36868 ft 515 kts 354°
2026-05-06 04:42 47.21458 8.99664 36861 ft 515 kts 355°
2026-05-06 04:42 47.28590 8.99344 36855 ft 515 kts 355°
2026-05-06 04:43 47.35756 8.99023 36846 ft 515 kts 355°
2026-05-06 04:43 47.42919 8.98701 36845 ft 515 kts 355°
2026-05-06 04:44 47.50028 8.98381 36850 ft 514 kts 355°
2026-05-06 04:44 47.57170 8.98059 36848 ft 513 kts 355°
2026-05-06 04:45 47.64334 8.97734 36852 ft 513 kts 355°
2026-05-06 04:45 47.71420 8.97412 36850 ft 512 kts 355°
2026-05-06 04:46 47.78557 8.97087 36848 ft 511 kts 355°
2026-05-06 04:46 47.85654 8.96763 36850 ft 511 kts 355°
2026-05-06 04:47 47.92742 8.96438 36849 ft 511 kts 355°
2026-05-06 04:47 47.99859 8.96111 36847 ft 511 kts 355°
2026-05-06 04:48 48.06960 8.95783 36844 ft 511 kts 355°
2026-05-06 04:48 48.14083 8.95455 36841 ft 512 kts 355°
2026-05-06 04:49 48.21185 8.96066 36752 ft 510 kts
2026-05-06 04:49 48.24693 8.96570 36048 ft 508 kts
2026-05-06 04:49 48.28252 8.97095 35066 ft 512 kts
2026-05-06 04:49 48.31801 8.97627 34142 ft 516 kts
2026-05-06 04:50 48.35364 8.98164 33056 ft 520 kts
2026-05-06 04:50 48.38992 8.98715 31979 ft 522 kts
2026-05-06 04:50 48.42597 8.99263 30908 ft 525 kts
2026-05-06 04:50 48.46211 8.99814 29810 ft 527 kts
2026-05-06 04:51 48.49877 9.00376 28732 ft 527 kts
2026-05-06 04:51 48.53530 9.00935 27960 ft 519 kts
2026-05-06 04:51 48.57055 9.01475 27234 ft 512 kts
2026-05-06 04:51 48.60561 9.02012 26518 ft 505 kts
2026-05-06 04:52 48.64046 9.02553 25802 ft 498 kts
2026-05-06 04:52 48.67435 9.03300 25116 ft 493 kts
2026-05-06 04:52 48.70832 9.04162 24444 ft 486 kts
2026-05-06 04:52 48.74127 9.04992 23810 ft 479 kts
2026-05-06 04:53 48.77376 9.05795 23141 ft 471 kts
2026-05-06 04:53 48.80582 9.06576 22288 ft 466 kts
2026-05-06 04:53 48.83792 9.07352 21418 ft 462 kts
2026-05-06 04:53 48.86939 9.08109 20599 ft 458 kts
2026-05-06 04:54 48.90072 9.08826 19785 ft 452 kts
2026-05-06 04:54 48.93171 9.09277 19014 ft 447 kts
2026-05-06 04:54 48.96272 9.09665 18252 ft 442 kts
2026-05-06 04:54 48.99306 9.10057 17431 ft 438 kts
2026-05-06 04:55 49.02346 9.10466 16611 ft 432 kts
2026-05-06 04:55 49.05316 9.10873 15835 ft 427 kts
2026-05-06 04:55 49.08241 9.11284 15051 ft 422 kts
2026-05-06 04:55 49.11118 9.11692 14357 ft 417 kts
2026-05-06 04:56 49.14028 9.12106 13944 ft 416 kts
2026-05-06 04:56 49.16881 9.12513 13824 ft 416 kts
2026-05-06 04:56 49.19775 9.12927 13808 ft 415 kts
2026-05-06 04:56 49.22638 9.13337 13810 ft 414 kts
2026-05-06 04:57 49.25509 9.13748 13807 ft 414 kts
2026-05-06 04:57 49.28355 9.14244 13805 ft 415 kts
2026-05-06 04:57 49.31183 9.15123 13794 ft 415 kts 11°
2026-05-06 04:57 49.33961 9.16103 13247 ft 404 kts 11°
2026-05-06 04:58 49.36722 9.17092 12243 ft 404 kts 11°
2026-05-06 04:58 49.39429 9.18059 11415 ft 401 kts 11°
2026-05-06 04:58 49.42130 9.19024 10669 ft 394 kts 11°
2026-05-06 04:58 49.44762 9.19962 9898 ft 389 kts 11°
2026-05-06 04:59 49.47391 9.20899 9271 ft 379 kts 11°
2026-05-06 04:59 49.49882 9.21788 8936 ft 361 kts 11°
2026-05-06 04:59 49.52285 9.22648 8648 ft 344 kts 11°
2026-05-06 04:59 49.54559 9.23465 8419 ft 328 kts 11°
2026-05-06 05:00 49.56715 9.24237 8199 ft 313 kts 11°
2026-05-06 05:00 49.58807 9.24984 7932 ft 300 kts 10°
2026-05-06 05:00 49.60802 9.25693 7575 ft 295 kts 10°
2026-05-06 05:00 49.62787 9.26403 7185 ft 291 kts 10°
2026-05-06 05:01 49.64748 9.27104 6918 ft 289 kts
2026-05-06 05:01 49.66707 9.27803 6862 ft 289 kts
2026-05-06 05:01 49.68681 9.28510 6864 ft 289 kts
2026-05-06 05:01 49.70619 9.29207 6869 ft 289 kts
2026-05-06 05:02 49.72593 9.29914 6861 ft 289 kts
2026-05-06 05:02 49.74539 9.30617 6866 ft 289 kts
2026-05-06 05:02 49.76489 9.31317 6861 ft 289 kts
2026-05-06 05:02 49.78454 9.32024 6870 ft 288 kts
2026-05-06 05:03 49.80390 9.32722 6868 ft 289 kts
2026-05-06 05:03 49.82361 9.33431 6863 ft 289 kts 10°
2026-05-06 05:03 49.84309 9.34135 6860 ft 289 kts 10°
2026-05-06 05:03 49.86299 9.34656 6860 ft 287 kts 359°
2026-05-06 05:04 49.88269 9.34512 6859 ft 284 kts 350°
2026-05-06 05:04 49.90222 9.34168 6858 ft 283 kts 349°
2026-05-06 05:04 49.92169 9.33805 6859 ft 283 kts 349°
2026-05-06 05:04 49.94140 9.33439 6857 ft 283 kts 349°
2026-05-06 05:05 49.96080 9.33083 6861 ft 283 kts 349°
2026-05-06 05:05 49.98049 9.32725 6863 ft 283 kts 349°
2026-05-06 05:05 49.99999 9.32374 6845 ft 284 kts 349°
2026-05-06 05:05 50.01947 9.32029 6861 ft 283 kts 349°
2026-05-06 05:06 50.03911 9.31677 6857 ft 283 kts 349°
2026-05-06 05:06 50.05857 9.31325 6865 ft 283 kts 349°
2026-05-06 05:06 50.07823 9.30969 6861 ft 283 kts 349°
2026-05-06 05:06 50.09782 9.30614 6862 ft 283 kts 349°
2026-05-06 05:07 50.11724 9.30263 6856 ft 283 kts 349°
2026-05-06 05:07 50.13671 9.29911 6860 ft 283 kts 349°
2026-05-06 05:07 50.15633 9.29556 6854 ft 284 kts 349°
2026-05-06 05:07 50.17584 9.29202 6855 ft 283 kts 349°
2026-05-06 05:08 50.19530 9.28852 6860 ft 283 kts 349°
2026-05-06 05:08 50.21500 9.28495 6857 ft 283 kts 349°
2026-05-06 05:08 50.23445 9.28144 6849 ft 283 kts 349°
2026-05-06 05:08 50.25407 9.27789 6854 ft 283 kts 349°
2026-05-06 05:09 50.27345 9.27438 6855 ft 283 kts 349°
2026-05-06 05:09 50.29310 9.27083 6855 ft 283 kts 349°
2026-05-06 05:09 50.31254 9.26730 6856 ft 283 kts 349°
2026-05-06 05:09 50.33213 9.26374 6844 ft 282 kts 349°
2026-05-06 05:10 50.35118 9.25782 6850 ft 279 kts 337°
2026-05-06 05:10 50.36740 9.24204 6850 ft 270 kts 311°
2026-05-06 05:10 50.37852 9.21897 6779 ft 264 kts 300°
2026-05-06 05:10 50.38725 9.19387 6305 ft 262 kts 289°
2026-05-06 05:11 50.39039 9.16608 5935 ft 258 kts 266°
2026-05-06 05:11 50.38845 9.14757 5856 ft 258 kts 253°
2026-05-06 05:11 50.38067 9.11248 5843 ft 258 kts 249°
2026-05-06 05:11 50.37648 9.09498 5845 ft 258 kts 249°
2026-05-06 05:12 50.37018 9.06843 5845 ft 257 kts 249°
2026-05-06 05:12 50.36403 9.04234 5844 ft 257 kts 249°
2026-05-06 05:12 50.35743 9.01647 5845 ft 257 kts 244°
2026-05-06 05:12 50.34721 8.99326 5845 ft 258 kts 227°
2026-05-06 05:13 50.33261 8.97737 5851 ft 260 kts 205°
2026-05-06 05:13 50.31483 8.97254 5850 ft 266 kts 179°
2026-05-06 05:13 50.29701 8.98126 5842 ft 273 kts 152°
2026-05-06 05:13 50.28358 9.00265 5849 ft 282 kts 122°
2026-05-06 05:14 50.27835 9.03223 5859 ft 287 kts 94°
2026-05-06 05:14 50.27786 9.06330 5848 ft 288 kts 93°
2026-05-06 05:14 50.27699 9.09444 5849 ft 288 kts 96°
2026-05-06 05:14 50.27531 9.12559 5851 ft 288 kts 98°
2026-05-06 05:15 50.27269 9.15674 5849 ft 287 kts 101°
2026-05-06 05:15 50.26907 9.18710 5854 ft 286 kts 105°
2026-05-06 05:15 50.26428 9.21739 5857 ft 286 kts 109°
2026-05-06 05:15 50.25946 9.24779 5853 ft 288 kts 105°
2026-05-06 05:16 50.25537 9.27813 5855 ft 288 kts 103°
2026-05-06 05:16 50.25122 9.30887 5855 ft 288 kts 104°
2026-05-06 05:16 50.24609 9.33892 5852 ft 287 kts 111°
2026-05-06 05:16 50.23825 9.36723 5857 ft 284 kts 122°
2026-05-06 05:17 50.22960 9.39495 5853 ft 285 kts 116°
2026-05-06 05:17 50.21790 9.41904 5856 ft 278 kts 147°
2026-05-06 05:17 50.20050 9.43011 5487 ft 266 kts 178°
2026-05-06 05:17 50.18319 9.42482 5005 ft 255 kts 211°
2026-05-06 05:18 50.17133 9.40541 4518 ft 249 kts 245°
2026-05-06 05:18 50.16675 9.37958 4076 ft 245 kts 256°
2026-05-06 05:18 50.16084 9.35469 3877 ft 244 kts 243°
2026-05-06 05:18 50.15247 9.33150 3850 ft 244 kts 245°
2026-05-06 05:19 50.15081 9.30573 3859 ft 247 kts 280°
2026-05-06 05:19 50.15930 9.28248 3857 ft 255 kts 311°
2026-05-06 05:19 50.17334 9.26493 3855 ft 260 kts 322°
2026-05-06 05:19 50.18882 9.24999 3850 ft 261 kts 325°
2026-05-06 05:20 50.20441 9.23583 3843 ft 259 kts 325°
2026-05-06 05:20 50.21980 9.22153 3435 ft 255 kts 324°
2026-05-06 05:20 50.23476 9.20692 3021 ft 255 kts 322°
2026-05-06 05:20 50.24946 9.19139 2869 ft 258 kts 320°
2026-05-06 05:21 50.26379 9.17484 2837 ft 257 kts 317°
2026-05-06 05:21 50.27776 9.15696 2863 ft 257 kts 314°
2026-05-06 05:21 50.29116 9.13869 2864 ft 257 kts 317°
2026-05-06 05:21 50.30365 9.11937 2845 ft 252 kts 300°
2026-05-06 05:22 50.31114 9.09486 2844 ft 247 kts 287°
2026-05-06 05:22 50.31681 9.06964 2846 ft 248 kts 285°
2026-05-06 05:22 50.32248 9.04399 2838 ft 248 kts 288°
2026-05-06 05:22 50.33232 9.02176 2842 ft 256 kts 315°
2026-05-06 05:23 50.34818 9.00901 2840 ft 264 kts 343°
2026-05-06 05:23 50.36681 9.00930 2839 ft 272 kts 11°
2026-05-06 05:23 50.39791 9.04365 2837 ft 280 kts 47°
2026-05-06 05:24 50.40700 9.07005 2853 ft 279 kts 76°
2026-05-06 05:24 50.40776 9.10010 2844 ft 275 kts 104°
2026-05-06 05:24 50.39998 9.12701 2855 ft 268 kts 131°
2026-05-06 05:24 50.38793 9.14893 2834 ft 268 kts 132°
2026-05-06 05:25 50.37609 9.17109 2837 ft 265 kts 141°
2026-05-06 05:25 50.36021 9.18453 2856 ft 256 kts 170°
2026-05-06 05:25 50.34336 9.18450 2857 ft 235 kts 199°
2026-05-06 05:25 50.33003 9.17202 2861 ft 220 kts 229°
2026-05-06 05:26 50.32232 9.15186 2865 ft 218 kts 245°
2026-05-06 05:26 50.31675 9.12963 2860 ft 219 kts 255°
2026-05-06 05:26 50.31364 9.10624 2838 ft 219 kts 258°
2026-05-06 05:26 50.31098 9.08261 2840 ft 219 kts 259°
2026-05-06 05:27 50.30832 9.05910 2860 ft 221 kts 259°
2026-05-06 05:27 50.30565 9.03540 2859 ft 221 kts 258°
2026-05-06 05:27 50.30276 9.01205 2852 ft 219 kts 255°
2026-05-06 05:27 50.29777 8.98982 2861 ft 218 kts 245°
2026-05-06 05:28 50.29091 8.96858 2855 ft 218 kts 242°
2026-05-06 05:28 50.28340 8.94823 2853 ft 217 kts 236°
2026-05-06 05:28 50.27395 8.92969 2855 ft 217 kts 229°
2026-05-06 05:28 50.26358 8.91254 2835 ft 216 kts 227°
2026-05-06 05:29 50.25307 8.89586 2839 ft 217 kts 222°
2026-05-06 05:29 50.23992 8.88369 2859 ft 220 kts 208°
2026-05-06 05:29 50.22703 8.87118 2841 ft 221 kts 221°
2026-05-06 05:29 50.21533 8.85572 2838 ft 220 kts 223°
2026-05-06 05:30 50.20386 8.83968 2859 ft 221 kts 224°
2026-05-06 05:30 50.19240 8.82354 2834 ft 221 kts 224°
2026-05-06 05:30 50.18107 8.80769 2852 ft 221 kts 224°
2026-05-06 05:30 50.16956 8.79155 2786 ft 219 kts 224°
2026-05-06 05:31 50.15818 8.77599 2442 ft 217 kts 221°
2026-05-06 05:31 50.14634 8.76152 2030 ft 220 kts 219°
2026-05-06 05:31 50.13434 8.74697 1866 ft 212 kts 219°
2026-05-06 05:31 50.12324 8.73335 1865 ft 198 kts 220°
2026-05-06 05:32 50.11253 8.72029 1867 ft 188 kts 219°
2026-05-06 05:32 50.10247 8.70813 1952 ft 181 kts 219°
2026-05-06 05:32 50.09284 8.69643 1909 ft 172 kts 219°
2026-05-06 05:32 50.08375 8.68609 1885 ft 144 kts 217°
2026-05-06 05:33 50.07664 8.67787 1902 ft 115 kts 224°
2026-05-06 05:33 50.07132 8.67014 1823 ft 98 kts 226°
2026-05-06 05:33 50.06708 8.66284 1708 ft 83 kts 231°
2026-05-06 05:33 50.06323 8.65404 1644 ft 134 kts 237°
2026-05-06 05:34 50.05828 8.63911 1524 ft 159 kts 243°
2026-05-06 05:34 50.05442 8.62425 1250 ft 143 kts 246°
2026-05-06 05:34 50.05087 8.60996 938 ft 138 kts 248°
2026-05-06 05:34 50.04722 8.59515 672 ft 157 kts 246°
2026-05-06 05:35 50.04336 8.57932 391 ft 151 kts 245°
2026-05-06 05:35 50.04028 8.56671 365 ft 86 kts 253°
2026-05-06 05:35 50.03867 8.55943 366 ft 59 kts 251°
2026-05-06 05:35 50.03748 8.55453 362 ft 43 kts 250°
2026-05-06 05:36 50.03692 8.55117 356 ft 21 kts 276°
2026-05-06 05:36 50.03696 8.55067 353 ft 0 kts 278°
2026-05-06 05:36 50.03703 8.55000 351 ft 14 kts 281°
2026-05-06 05:37 50.03711 8.54932 360 ft 7 kts 279°
2026-05-06 05:37 50.03745 8.54868 362 ft 8 kts 344°
2026-05-06 05:37 50.03793 8.54908 363 ft 9 kts 49°
2026-05-06 05:37 50.03824 8.55018 364 ft 14 kts 68°
2026-05-06 05:38 50.03865 8.55177 360 ft 18 kts 68°
2026-05-06 05:38 50.03915 8.55385 362 ft 23 kts 71°
2026-05-06 05:38 50.03973 8.55637 364 ft 27 kts 70°
2026-05-06 05:38 50.04038 8.55910 365 ft 17 kts 69°
2026-05-06 05:39 50.04073 8.55959 363 ft 6 kts 14°
2026-05-06 05:39 50.04121 8.55953 365 ft 9 kts 346°
2026-05-06 05:39 50.04198 8.55937 367 ft 13 kts
2026-05-06 05:39 50.04272 8.56034 368 ft 15 kts 40°
2026-05-06 05:40 50.04372 8.56041 364 ft 16 kts 353°
2026-05-06 05:40 50.04459 8.56147 370 ft 19 kts 66°
2026-05-06 05:40 50.04506 8.56349 369 ft 14 kts 68°
2026-05-06 05:40 50.04562 8.56447 370 ft 11 kts 31°
2026-05-06 05:41 50.04595 8.56472 369 ft 4 kts 24°
2026-05-06 05:41 50.04634 8.56486 368 ft 7 kts 355°
2026-05-06 05:41 50.04672 8.56452 371 ft 4 kts 324°
2026-05-06 05:41 50.04704 8.56423 366 ft 7 kts 334°
2026-05-06 05:42 50.04726 8.56408 371 ft 1 kts 336°
2026-05-06 05:42 50.04738 8.56400 368 ft 4 kts 337°
2026-05-06 05:42 50.04751 8.56392 368 ft 4 kts 338°
2026-05-06 05:42 50.04754 8.56390 368 ft 0 kts 339°